Wetterdaten: Montag, 15.06.2015
Datum Zeit Temp. Aussen +5cm Feuchte Auss BlattFeu 1 Luftdruck Regen Sonnenschein Regendauer Solar Windben
15.06.2015 00:00 17,0 C 15,6 C 81 % 0 lf 1012,6 hPa 0,0 l/m 0 min 0 min 0 W/m 10,5 km/h (2 Bft)
15.06.2015 00:02 16,9 C 15,6 C 81 % 0 lf 1012,6 hPa 0,0 l/m 0 min 0 min 0 W/m 12,6 km/h (3 Bft)
15.06.2015 00:05 16,9 C 15,6 C 81 % 0 lf 1012,6 hPa 0,0 l/m 0 min 0 min 0 W/m 10,5 km/h (2 Bft)
15.06.2015 00:06 16,9 C 15,6 C 81 % 0 lf 1012,6 hPa 0,0 l/m 0 min 0 min 0 W/m 8,4 km/h (2 Bft)
15.06.2015 00:08 16,8 C 15,6 C 81 % 0 lf 1012,6 hPa 0,0 l/m 0 min 0 min 0 W/m 10,5 km/h (2 Bft)
15.06.2015 00:10 16,8 C 15,0 C 81 % 0 lf 1012,5 hPa 0,0 l/m 0 min 0 min 0 W/m 12,6 km/h (3 Bft)
15.06.2015 00:12 16,8 C 15,0 C 82 % 0 lf 1012,6 hPa 0,0 l/m 0 min 0 min 0 W/m 16,7 km/h (3 Bft)
15.06.2015 00:14 16,7 C 15,0 C 82 % 0 lf 1012,6 hPa 0,0 l/m 0 min 0 min 0 W/m 10,5 km/h (2 Bft)
15.06.2015 00:16 16,7 C 15,0 C 82 % 0 lf 1012,7 hPa 0,0 l/m 0 min 0 min 0 W/m 10,5 km/h (2 Bft)
15.06.2015 00:18 16,7 C 15,0 C 82 % 0 lf 1012,7 hPa 0,0 l/m 0 min 0 min 0 W/m 10,5 km/h (2 Bft)
15.06.2015 00:20 16,7 C 15,0 C 82 % 0 lf 1012,7 hPa 0,0 l/m 0 min 0 min 0 W/m 12,6 km/h (3 Bft)
15.06.2015 00:22 16,6 C 15,0 C 82 % 0 lf 1012,7 hPa 0,0 l/m 0 min 0 min 0 W/m 8,4 km/h (2 Bft)
15.06.2015 00:24 16,6 C 15,0 C 82 % 0 lf 1012,6 hPa 0,0 l/m 0 min 0 min 0 W/m 8,4 km/h (2 Bft)
15.06.2015 00:26 16,6 C 15,0 C 82 % 0 lf 1012,7 hPa 0,0 l/m 0 min 0 min 0 W/m 10,5 km/h (2 Bft)
15.06.2015 00:28 16,6 C 15,0 C 82 % 0 lf 1012,7 hPa 0,0 l/m 0 min 0 min 0 W/m 12,6 km/h (3 Bft)
15.06.2015 00:30 16,5 C 15,0 C 83 % 0 lf 1012,7 hPa 0,0 l/m 0 min 0 min 0 W/m 10,5 km/h (2 Bft)
15.06.2015 00:32 16,5 C 15,0 C 83 % 0 lf 1012,7 hPa 0,0 l/m 0 min 0 min 0 W/m 12,6 km/h (3 Bft)
15.06.2015 00:34 16,4 C 15,0 C 83 % 0 lf 1012,7 hPa 0,0 l/m 0 min 0 min 0 W/m 10,5 km/h (2 Bft)
15.06.2015 00:36 16,4 C 15,0 C 83 % 0 lf 1012,8 hPa 0,0 l/m 0 min 0 min 0 W/m 12,6 km/h (3 Bft)
15.06.2015 00:38 16,4 C 15,0 C 83 % 0 lf 1012,8 hPa 0,0 l/m 0 min 0 min 0 W/m 8,4 km/h (2 Bft)
15.06.2015 00:40 16,4 C 15,0 C 83 % 0 lf 1012,8 hPa 0,0 l/m 0 min 0 min 0 W/m 8,4 km/h (2 Bft)
15.06.2015 00:42 16,4 C 15,0 C 83 % 0 lf 1012,8 hPa 0,0 l/m 0 min 0 min 0 W/m 12,6 km/h (3 Bft)
15.06.2015 00:44 16,4 C 15,0 C 83 % 0 lf 1012,8 hPa 0,0 l/m 0 min 0 min 0 W/m 10,5 km/h (2 Bft)
15.06.2015 00:46 16,3 C 15,0 C 83 % 0 lf 1012,9 hPa 0,0 l/m 0 min 0 min 0 W/m 10,5 km/h (2 Bft)
15.06.2015 00:48 16,3 C 15,0 C 83 % 0 lf 1012,9 hPa 0,0 l/m 0 min 0 min 0 W/m 10,5 km/h (2 Bft)
15.06.2015 00:50 16,3 C 15,0 C 84 % 0 lf 1012,9 hPa 0,0 l/m 0 min 0 min 0 W/m 14,6 km/h (3 Bft)
15.06.2015 00:52 16,3 C 15,0 C 84 % 0 lf 1013,0 hPa 0,0 l/m 0 min 0 min 0 W/m 10,5 km/h (2 Bft)
15.06.2015 00:54 16,3 C 15,0 C 84 % 0 lf 1013,0 hPa 0,0 l/m 0 min 0 min 0 W/m 12,6 km/h (3 Bft)
15.06.2015 00:56 16,3 C 15,0 C 84 % 0 lf 1012,9 hPa 0,0 l/m 0 min 0 min 0 W/m 8,4 km/h (2 Bft)
15.06.2015 00:58 16,3 C 15,0 C 84 % 0 lf 1012,9 hPa 0,0 l/m 0 min 0 min 0 W/m 12,6 km/h (3 Bft)
15.06.2015 01:00 16,3 C 15,0 C 84 % 0 lf 1013,0 hPa 0,0 l/m 0 min 0 min 0 W/m 16,7 km/h (3 Bft)
15.06.2015 01:02 16,3 C 15,0 C 84 % 0 lf 1012,9 hPa 0,0 l/m 0 min 0 min 0 W/m 14,6 km/h (3 Bft)
15.06.2015 01:04 16,3 C 15,0 C 84 % 0 lf 1013,0 hPa 0,0 l/m 0 min 0 min 0 W/m 12,6 km/h (3 Bft)
15.06.2015 01:06 16,3 C 15,0 C 84 % 0 lf 1013,0 hPa 0,0 l/m 0 min 0 min 0 W/m 16,7 km/h (3 Bft)
15.06.2015 01:08 16,3 C 15,0 C 84 % 0 lf 1013,0 hPa 0,0 l/m 0 min 0 min 0 W/m 12,6 km/h (3 Bft)
15.06.2015 01:10 16,3 C 15,0 C 84 % 0 lf 1013,0 hPa 0,0 l/m 0 min 0 min 0 W/m 10,5 km/h (2 Bft)
15.06.2015 01:12 16,3 C 15,0 C 84 % 0 lf 1013,0 hPa 0,0 l/m 0 min 0 min 0 W/m 20,9 km/h (4 Bft)
15.06.2015 01:14 16,3 C 15,0 C 84 % 0 lf 1013,1 hPa 0,0 l/m 0 min 0 min 0 W/m 16,7 km/h (3 Bft)
15.06.2015 01:16 16,3 C 15,0 C 84 % 0 lf 1013,0 hPa 0,0 l/m 0 min 0 min 0 W/m 14,6 km/h (3 Bft)
15.06.2015 01:18 16,3 C 15,0 C 84 % 0 lf 1013,0 hPa 0,0 l/m 0 min 0 min 0 W/m 12,6 km/h (3 Bft)
15.06.2015 01:20 16,3 C 15,0 C 84 % 0 lf 1013,0 hPa 0,0 l/m 0 min 0 min 0 W/m 16,7 km/h (3 Bft)
15.06.2015 01:22 16,3 C 15,0 C 84 % 0 lf 1013,0 hPa 0,0 l/m 0 min 0 min 0 W/m 12,6 km/h (3 Bft)
15.06.2015 01:24 16,3 C 15,0 C 84 % 0 lf 1013,0 hPa 0,0 l/m 0 min 0 min 0 W/m 18,8 km/h (3 Bft)
15.06.2015 01:26 16,3 C 15,0 C 84 % 0 lf 1013,1 hPa 0,0 l/m 0 min 0 min 0 W/m 16,7 km/h (3 Bft)
15.06.2015 01:28 16,2 C 15,0 C 84 % 0 lf 1013,2 hPa 0,0 l/m 0 min 0 min 0 W/m 20,9 km/h (4 Bft)
15.06.2015 01:30 16,2 C 15,0 C 84 % 0 lf 1013,2 hPa 0,0 l/m 0 min 0 min 0 W/m 12,6 km/h (3 Bft)
15.06.2015 01:32 16,3 C 15,0 C 84 % 0 lf 1013,1 hPa 0,0 l/m 0 min 0 min 0 W/m 12,6 km/h (3 Bft)
15.06.2015 01:34 16,3 C 15,0 C 84 % 0 lf 1013,1 hPa 0,0 l/m 0 min 0 min 0 W/m 10,5 km/h (2 Bft)
15.06.2015 01:36 16,2 C 15,0 C 84 % 0 lf 1013,2 hPa 0,0 l/m 0 min 0 min 0 W/m 16,7 km/h (3 Bft)
15.06.2015 01:38 16,2 C 15,0 C 84 % 0 lf 1013,2 hPa 0,0 l/m 0 min 0 min 0 W/m 14,6 km/h (3 Bft)
15.06.2015 01:40 16,2 C 15,0 C 83 % 0 lf 1013,2 hPa 0,0 l/m 0 min 0 min 0 W/m 18,8 km/h (3 Bft)
15.06.2015 01:42 16,2 C 15,0 C 83 % 0 lf 1013,3 hPa 0,0 l/m 0 min 0 min 0 W/m 20,9 km/h (4 Bft)
15.06.2015 01:44 16,2 C 15,0 C 83 % 0 lf 1013,3 hPa 0,0 l/m 0 min 0 min 0 W/m 23,0 km/h (4 Bft)
15.06.2015 01:46 16,2 C 15,0 C 83 % 0 lf 1013,3 hPa 0,0 l/m 0 min 0 min 0 W/m 18,8 km/h (3 Bft)
15.06.2015 01:48 16,2 C 15,0 C 83 % 0 lf 1013,3 hPa 0,0 l/m 0 min 0 min 0 W/m 20,9 km/h (4 Bft)
15.06.2015 01:50 16,2 C 15,0 C 83 % 0 lf 1013,3 hPa 0,0 l/m 0 min 0 min 0 W/m 20,9 km/h (4 Bft)
15.06.2015 01:52 16,1 C 15,0 C 83 % 0 lf 1013,4 hPa 0,0 l/m 0 min 0 min 0 W/m 16,7 km/h (3 Bft)
15.06.2015 01:54 16,1 C 15,0 C 83 % 0 lf 1013,4 hPa 0,0 l/m 0 min 0 min 0 W/m 20,9 km/h (4 Bft)
15.06.2015 01:56 16,1 C 15,0 C 82 % 0 lf 1013,4 hPa 0,0 l/m 0 min 0 min 0 W/m 20,9 km/h (4 Bft)
15.06.2015 01:58 16,1 C 15,0 C 82 % 0 lf 1013,3 hPa 0,0 l/m 0 min 0 min 0 W/m 18,8 km/h (3 Bft)
15.06.2015 02:00 16,1 C 15,0 C 82 % 0 lf 1013,4 hPa 0,0 l/m 0 min 0 min 0 W/m 23,0 km/h (4 Bft)
15.06.2015 02:02 16,0 C 15,0 C 82 % 0 lf 1013,3 hPa 0,0 l/m 0 min 0 min 0 W/m 20,9 km/h (4 Bft)
15.06.2015 02:04 16,0 C 15,0 C 82 % 0 lf 1013,3 hPa 0,0 l/m 0 min 0 min 0 W/m 18,8 km/h (3 Bft)
15.06.2015 02:06 15,9 C 14,4 C 82 % 0 lf 1013,4 hPa 0,0 l/m 0 min 0 min 0 W/m 16,7 km/h (3 Bft)
15.06.2015 02:08 15,9 C 14,4 C 82 % 0 lf 1013,4 hPa 0,0 l/m 0 min 0 min 0 W/m 16,7 km/h (3 Bft)
15.06.2015 02:10 15,9 C 14,4 C 82 % 0 lf 1013,4 hPa 0,0 l/m 0 min 0 min 0 W/m 14,6 km/h (3 Bft)
15.06.2015 02:12 15,9 C 14,4 C 82 % 0 lf 1013,4 hPa 0,0 l/m 0 min 0 min 0 W/m 12,6 km/h (3 Bft)
15.06.2015 02:14 15,8 C 14,4 C 82 % 0 lf 1013,4 hPa 0,0 l/m 0 min 0 min 0 W/m 23,0 km/h (4 Bft)
15.06.2015 02:16 15,8 C 14,4 C 82 % 0 lf 1013,4 hPa 0,0 l/m 0 min 0 min 0 W/m 18,8 km/h (3 Bft)
15.06.2015 02:18 15,8 C 14,4 C 82 % 0 lf 1013,4 hPa 0,0 l/m 0 min 0 min 0 W/m 16,7 km/h (3 Bft)
15.06.2015 02:20 15,7 C 14,4 C 82 % 0 lf 1013,4 hPa 0,0 l/m 0 min 0 min 0 W/m 20,9 km/h (4 Bft)
15.06.2015 02:22 15,7 C 14,4 C 82 % 0 lf 1013,5 hPa 0,0 l/m 0 min 0 min 0 W/m 23,0 km/h (4 Bft)
15.06.2015 02:24 15,7 C 14,4 C 82 % 0 lf 1013,5 hPa 0,0 l/m 0 min 0 min 0 W/m 23,0 km/h (4 Bft)
15.06.2015 02:26 15,6 C 14,4 C 82 % 0 lf 1013,5 hPa 0,0 l/m 0 min 0 min 0 W/m 23,0 km/h (4 Bft)
15.06.2015 02:28 15,6 C 14,4 C 82 % 0 lf 1013,5 hPa 0,0 l/m 0 min 0 min 0 W/m 23,0 km/h (4 Bft)
15.06.2015 02:30 15,6 C 14,4 C 82 % 0 lf 1013,5 hPa 0,0 l/m 0 min 0 min 0 W/m 18,8 km/h (3 Bft)
15.06.2015 02:32 15,5 C 14,4 C 82 % 0 lf 1013,5 hPa 0,0 l/m 0 min 0 min 0 W/m 27,2 km/h (4 Bft)
15.06.2015 02:34 15,4 C 13,9 C 82 % 0 lf 1013,6 hPa 0,0 l/m 0 min 0 min 0 W/m 20,9 km/h (4 Bft)
15.06.2015 02:36 15,4 C 13,9 C 82 % 0 lf 1013,6 hPa 0,0 l/m 0 min 0 min 0 W/m 18,8 km/h (3 Bft)
15.06.2015 02:38 15,4 C 13,9 C 82 % 0 lf 1013,7 hPa 0,0 l/m 0 min 0 min 0 W/m 14,6 km/h (3 Bft)
15.06.2015 02:40 15,4 C 13,9 C 82 % 0 lf 1013,6 hPa 0,0 l/m 0 min 0 min 0 W/m 20,9 km/h (4 Bft)
15.06.2015 02:42 15,3 C 13,9 C 82 % 0 lf 1013,6 hPa 0,0 l/m 0 min 0 min 0 W/m 14,6 km/h (3 Bft)
15.06.2015 02:44 15,3 C 13,9 C 82 % 0 lf 1013,6 hPa 0,0 l/m 0 min 0 min 0 W/m 18,8 km/h (3 Bft)
15.06.2015 02:46 15,3 C 13,9 C 82 % 0 lf 1013,6 hPa 0,0 l/m 0 min 0 min 0 W/m 16,7 km/h (3 Bft)
15.06.2015 02:48 15,3 C 13,9 C 83 % 0 lf 1013,6 hPa 0,0 l/m 0 min 0 min 0 W/m 14,6 km/h (3 Bft)
15.06.2015 02:50 15,2 C 13,9 C 83 % 0 lf 1013,6 hPa 0,0 l/m 0 min 0 min 0 W/m 18,8 km/h (3 Bft)
15.06.2015 02:52 15,2 C 13,9 C 83 % 0 lf 1013,7 hPa 0,0 l/m 0 min 0 min 0 W/m 23,0 km/h (4 Bft)
15.06.2015 02:54 15,2 C 13,9 C 83 % 0 lf 1013,7 hPa 0,0 l/m 0 min 0 min 0 W/m 18,8 km/h (3 Bft)
15.06.2015 02:56 15,2 C 13,9 C 83 % 0 lf 1013,7 hPa 0,0 l/m 0 min 0 min 0 W/m 20,9 km/h (4 Bft)
15.06.2015 02:58 15,1 C 13,9 C 83 % 0 lf 1013,8 hPa 0,0 l/m 0 min 0 min 0 W/m 14,6 km/h (3 Bft)
15.06.2015 03:00 15,1 C 13,9 C 83 % 0 lf 1013,7 hPa 0,0 l/m 0 min 0 min 0 W/m 20,9 km/h (4 Bft)
15.06.2015 03:02 15,1 C 13,9 C 83 % 0 lf 1013,8 hPa 0,0 l/m 0 min 0 min 0 W/m 20,9 km/h (4 Bft)
15.06.2015 03:04 15,1 C 13,9 C 84 % 0 lf 1013,8 hPa 0,0 l/m 0 min 0 min 0 W/m 23,0 km/h (4 Bft)
15.06.2015 03:06 15,0 C 13,9 C 84 % 0 lf 1013,7 hPa 0,0 l/m 0 min 0 min 0 W/m 20,9 km/h (4 Bft)
15.06.2015 03:08 15,0 C 13,9 C 84 % 0 lf 1013,8 hPa 0,0 l/m 0 min 0 min 0 W/m 20,9 km/h (4 Bft)
15.06.2015 03:10 14,9 C 13,9 C 84 % 0 lf 1013,8 hPa 0,0 l/m 0 min 0 min 0 W/m 18,8 km/h (3 Bft)
15.06.2015 03:12 14,9 C 13,9 C 84 % 0 lf 1013,9 hPa 0,0 l/m 0 min 0 min 0 W/m 16,7 km/h (3 Bft)
15.06.2015 03:14 14,9 C 13,9 C 84 % 0 lf 1013,9 hPa 0,0 l/m 0 min 0 min 0 W/m 14,6 km/h (3 Bft)
15.06.2015 03:16 14,9 C 13,9 C 84 % 0 lf 1013,8 hPa 0,0 l/m 0 min 0 min 0 W/m 18,8 km/h (3 Bft)
15.06.2015 03:18 14,8 C 13,9 C 84 % 0 lf 1013,9 hPa 0,0 l/m 0 min 0 min 0 W/m 27,2 km/h (4 Bft)
15.06.2015 03:20 14,8 C 13,9 C 84 % 0 lf 1013,9 hPa 0,0 l/m 0 min 0 min 0 W/m 25,1 km/h (4 Bft)
15.06.2015 03:22 14,8 C 13,9 C 84 % 0 lf 1013,9 hPa 0,0 l/m 0 min 0 min 0 W/m 23,0 km/h (4 Bft)
15.06.2015 03:24 14,7 C 13,3 C 84 % 0 lf 1013,9 hPa 0,0 l/m 0 min 0 min 0 W/m 20,9 km/h (4 Bft)
15.06.2015 03:26 14,7 C 13,3 C 84 % 0 lf 1013,9 hPa 0,0 l/m 0 min 0 min 0 W/m 18,8 km/h (3 Bft)
15.06.2015 03:28 14,7 C 13,3 C 85 % 0 lf 1013,9 hPa 0,0 l/m 0 min 0 min 0 W/m 18,8 km/h (3 Bft)
15.06.2015 03:30 14,7 C 13,3 C 84 % 0 lf 1013,9 hPa 0,0 l/m 0 min 0 min 0 W/m 14,6 km/h (3 Bft)
15.06.2015 03:32 14,6 C 13,3 C 84 % 0 lf 1013,9 hPa 0,0 l/m 0 min 0 min 0 W/m 20,9 km/h (4 Bft)
15.06.2015 03:34 14,6 C 13,3 C 84 % 0 lf 1013,9 hPa 0,0 l/m 0 min 0 min 0 W/m 18,8 km/h (3 Bft)
15.06.2015 03:36 14,6 C 13,3 C 84 % 0 lf 1014,0 hPa 0,0 l/m 0 min 0 min 0 W/m 12,6 km/h (3 Bft)
15.06.2015 03:38 14,6 C 13,3 C 85 % 0 lf 1014,0 hPa 0,0 l/m 0 min 0 min 0 W/m 14,6 km/h (3 Bft)
15.06.2015 03:40 14,6 C 13,3 C 85 % 0 lf 1014,1 hPa 0,0 l/m 0 min 0 min 0 W/m 16,7 km/h (3 Bft)
15.06.2015 03:42 14,6 C 13,3 C 85 % 0 lf 1014,1 hPa 0,0 l/m 0 min 0 min 0 W/m 14,6 km/h (3 Bft)
15.06.2015 03:44 14,6 C 13,3 C 85 % 0 lf 1014,1 hPa 0,0 l/m 0 min 0 min 0 W/m 14,6 km/h (3 Bft)
15.06.2015 03:46 14,5 C 13,3 C 85 % 0 lf 1014,1 hPa 0,0 l/m 0 min 0 min 0 W/m 14,6 km/h (3 Bft)
15.06.2015 03:48 14,5 C 13,3 C 85 % 0 lf 1014,1 hPa 0,0 l/m 0 min 0 min 0 W/m 20,9 km/h (4 Bft)
15.06.2015 03:50 14,5 C 13,3 C 85 % 0 lf 1014,1 hPa 0,0 l/m 0 min 0 min 0 W/m 16,7 km/h (3 Bft)
15.06.2015 03:52 14,5 C 13,3 C 85 % 0 lf 1014,2 hPa 0,0 l/m 0 min 0 min 0 W/m 18,8 km/h (3 Bft)
15.06.2015 03:54 14,5 C 13,3 C 84 % 0 lf 1014,1 hPa 0,0 l/m 0 min 0 min 0 W/m 27,2 km/h (4 Bft)
15.06.2015 03:56 14,5 C 13,3 C 84 % 0 lf 1014,1 hPa 0,0 l/m 0 min 0 min 0 W/m 20,9 km/h (4 Bft)
15.06.2015 03:58 14,5 C 13,3 C 84 % 0 lf 1014,1 hPa 0,0 l/m 0 min 0 min 0 W/m 14,6 km/h (3 Bft)
15.06.2015 04:00 14,5 C 13,3 C 84 % 0 lf 1014,2 hPa 0,0 l/m 0 min 0 min 0 W/m 16,7 km/h (3 Bft)
15.06.2015 04:02 14,4 C 13,3 C 84 % 0 lf 1014,2 hPa 0,0 l/m 0 min 0 min 0 W/m 18,8 km/h (3 Bft)
15.06.2015 04:04 14,4 C 13,3 C 84 % 0 lf 1014,2 hPa 0,0 l/m 0 min 0 min 0 W/m 16,7 km/h (3 Bft)
15.06.2015 04:06 14,4 C 13,3 C 84 % 0 lf 1014,2 hPa 0,0 l/m 0 min 0 min 0 W/m 20,9 km/h (4 Bft)
15.06.2015 04:08 14,4 C 13,3 C 84 % 0 lf 1014,3 hPa 0,0 l/m 0 min 0 min 0 W/m 29,3 km/h (5 Bft)
15.06.2015 04:10 14,4 C 13,3 C 84 % 0 lf 1014,3 hPa 0,0 l/m 0 min 0 min 0 W/m 20,9 km/h (4 Bft)
15.06.2015 04:12 14,4 C 13,3 C 84 % 0 lf 1014,4 hPa 0,0 l/m 0 min 0 min 0 W/m 16,7 km/h (3 Bft)
15.06.2015 04:14 14,4 C 13,3 C 84 % 0 lf 1014,3 hPa 0,0 l/m 0 min 0 min 0 W/m 12,6 km/h (3 Bft)
15.06.2015 04:16 14,4 C 13,3 C 84 % 0 lf 1014,4 hPa 0,0 l/m 0 min 0 min 0 W/m 16,7 km/h (3 Bft)
15.06.2015 04:18 14,4 C 13,3 C 84 % 0 lf 1014,4 hPa 0,0 l/m 0 min 0 min 0 W/m 18,8 km/h (3 Bft)
15.06.2015 04:20 14,4 C 13,3 C 84 % 0 lf 1014,4 hPa 0,0 l/m 0 min 0 min 0 W/m 18,8 km/h (3 Bft)
15.06.2015 04:22 14,4 C 13,3 C 84 % 0 lf 1014,4 hPa 0,0 l/m 0 min 0 min 0 W/m 16,7 km/h (3 Bft)
15.06.2015 04:24 14,4 C 13,3 C 84 % 0 lf 1014,4 hPa 0,0 l/m 0 min 0 min 0 W/m 18,8 km/h (3 Bft)
15.06.2015 04:26 14,4 C 13,3 C 84 % 0 lf 1014,4 hPa 0,0 l/m 0 min 0 min 0 W/m 18,8 km/h (3 Bft)
15.06.2015 04:28 14,4 C 13,3 C 83 % 0 lf 1014,5 hPa 0,0 l/m 0 min 0 min 0 W/m 18,8 km/h (3 Bft)
15.06.2015 04:30 14,4 C 13,3 C 83 % 0 lf 1014,4 hPa 0,0 l/m 0 min 0 min 0 W/m 14,6 km/h (3 Bft)
15.06.2015 04:32 14,4 C 13,3 C 83 % 0 lf 1014,5 hPa 0,0 l/m 0 min 0 min 0 W/m 16,7 km/h (3 Bft)
15.06.2015 04:34 14,4 C 13,3 C 83 % 0 lf 1014,5 hPa 0,0 l/m 0 min 0 min 0 W/m 20,9 km/h (4 Bft)
15.06.2015 04:36 14,4 C 13,3 C 83 % 0 lf 1014,5 hPa 0,0 l/m 0 min 0 min 0 W/m 14,6 km/h (3 Bft)
15.06.2015 04:38 14,4 C 13,3 C 83 % 0 lf 1014,5 hPa 0,0 l/m 0 min 0 min 0 W/m 18,8 km/h (3 Bft)
15.06.2015 04:40 14,4 C 13,3 C 83 % 0 lf 1014,5 hPa 0,0 l/m 0 min 0 min 0 W/m 18,8 km/h (3 Bft)
15.06.2015 04:42 14,4 C 13,3 C 82 % 0 lf 1014,5 hPa 0,0 l/m 0 min 0 min 0 W/m 16,7 km/h (3 Bft)
15.06.2015 04:44 14,3 C 13,3 C 82 % 0 lf 1014,5 hPa 0,0 l/m 0 min 0 min 0 W/m 20,9 km/h (4 Bft)
15.06.2015 04:46 14,3 C 13,3 C 82 % 0 lf 1014,6 hPa 0,0 l/m 0 min 0 min 0 W/m 27,2 km/h (4 Bft)
15.06.2015 04:48 14,3 C 13,3 C 82 % 0 lf 1014,7 hPa 0,0 l/m 0 min 0 min 0 W/m 20,9 km/h (4 Bft)
15.06.2015 04:50 14,3 C 13,3 C 82 % 0 lf 1014,6 hPa 0,0 l/m 0 min 0 min 0 W/m 16,7 km/h (3 Bft)
15.06.2015 04:52 14,3 C 13,3 C 82 % 0 lf 1014,6 hPa 0,0 l/m 0 min 0 min 0 W/m 18,8 km/h (3 Bft)
15.06.2015 04:54 14,3 C 13,3 C 81 % 0 lf 1014,6 hPa 0,0 l/m 0 min 0 min 0 W/m 18,8 km/h (3 Bft)
15.06.2015 04:56 14,3 C 13,3 C 81 % 0 lf 1014,6 hPa 0,0 l/m 0 min 0 min 0 W/m 16,7 km/h (3 Bft)
15.06.2015 04:58 14,3 C 13,3 C 81 % 0 lf 1014,6 hPa 0,0 l/m 0 min 0 min 0 W/m 18,8 km/h (3 Bft)
15.06.2015 05:00 14,2 C 13,3 C 81 % 0 lf 1014,7 hPa 0,0 l/m 0 min 0 min 0 W/m 25,1 km/h (4 Bft)
15.06.2015 05:02 14,2 C 13,3 C 81 % 0 lf 1014,7 hPa 0,0 l/m 0 min 0 min 0 W/m 18,8 km/h (3 Bft)
15.06.2015 05:04 14,2 C 13,3 C 81 % 0 lf 1014,7 hPa 0,0 l/m 0 min 0 min 0 W/m 14,6 km/h (3 Bft)
15.06.2015 05:06 14,2 C 13,3 C 81 % 0 lf 1014,7 hPa 0,0 l/m 0 min 0 min 0 W/m 14,6 km/h (3 Bft)
15.06.2015 05:08 14,2 C 13,3 C 81 % 0 lf 1014,7 hPa 0,0 l/m 0 min 0 min 0 W/m 20,9 km/h (4 Bft)
15.06.2015 05:10 14,2 C 13,3 C 81 % 0 lf 1014,8 hPa 0,0 l/m 0 min 0 min 0 W/m 16,7 km/h (3 Bft)
15.06.2015 05:12 14,2 C 13,3 C 81 % 0 lf 1014,8 hPa 0,0 l/m 0 min 0 min 0 W/m 14,6 km/h (3 Bft)
15.06.2015 05:14 14,2 C 13,3 C 81 % 0 lf 1014,8 hPa 0,0 l/m 0 min 0 min 0 W/m 23,0 km/h (4 Bft)
15.06.2015 05:16 14,2 C 13,3 C 81 % 0 lf 1014,9 hPa 0,0 l/m 0 min 0 min 0 W/m 18,8 km/h (3 Bft)
15.06.2015 05:18 14,2 C 13,3 C 81 % 0 lf 1015,0 hPa 0,0 l/m 0 min 0 min 0 W/m 23,0 km/h (4 Bft)
15.06.2015 05:20 14,2 C 13,3 C 81 % 0 lf 1015,0 hPa 0,0 l/m 0 min 0 min 0 W/m 18,8 km/h (3 Bft)
15.06.2015 05:22 14,2 C 13,3 C 81 % 0 lf 1015,0 hPa 0,0 l/m 0 min 0 min 0 W/m 16,7 km/h (3 Bft)
15.06.2015 05:24 14,2 C 13,3 C 81 % 0 lf 1015,0 hPa 0,0 l/m 0 min 0 min 0 W/m 14,6 km/h (3 Bft)
15.06.2015 05:26 14,2 C 13,3 C 81 % 0 lf 1015,1 hPa 0,0 l/m 0 min 0 min 0 W/m 18,8 km/h (3 Bft)
15.06.2015 05:28 14,2 C 13,3 C 81 % 0 lf 1015,1 hPa 0,0 l/m 0 min 0 min 0 W/m 20,9 km/h (4 Bft)
15.06.2015 05:30 14,2 C 13,3 C 81 % 0 lf 1015,1 hPa 0,0 l/m 0 min 0 min 0 W/m 14,6 km/h (3 Bft)
15.06.2015 05:32 14,2 C 13,3 C 81 % 0 lf 1015,0 hPa 0,0 l/m 0 min 0 min 0 W/m 18,8 km/h (3 Bft)
15.06.2015 05:34 14,2 C 13,3 C 81 % 0 lf 1015,1 hPa 0,0 l/m 0 min 0 min 0 W/m 16,7 km/h (3 Bft)
15.06.2015 05:36 14,2 C 13,3 C 81 % 0 lf 1015,1 hPa 0,0 l/m 0 min 0 min 0 W/m 14,6 km/h (3 Bft)
15.06.2015 05:38 14,2 C 13,3 C 81 % 0 lf 1015,1 hPa 0,0 l/m 0 min 0 min 0 W/m 14,6 km/h (3 Bft)
15.06.2015 05:40 14,2 C 13,3 C 81 % 0 lf 1015,1 hPa 0,0 l/m 0 min 0 min 0 W/m 10,5 km/h (2 Bft)
15.06.2015 05:42 14,2 C 13,3 C 81 % 0 lf 1015,1 hPa 0,0 l/m 0 min 0 min 0 W/m 16,7 km/h (3 Bft)
15.06.2015 05:44 14,2 C 12,8 C 81 % 0 lf 1015,1 hPa 0,0 l/m 0 min 0 min 0 W/m 18,8 km/h (3 Bft)
15.06.2015 05:46 14,2 C 12,8 C 81 % 0 lf 1015,2 hPa 0,0 l/m 0 min 0 min 0 W/m 20,9 km/h (4 Bft)
15.06.2015 05:48 14,2 C 12,8 C 81 % 0 lf 1015,3 hPa 0,0 l/m 0 min 0 min 0 W/m 14,6 km/h (3 Bft)
15.06.2015 05:50 14,2 C 12,8 C 81 % 0 lf 1015,3 hPa 0,0 l/m 0 min 0 min 4 W/m 14,6 km/h (3 Bft)
15.06.2015 05:52 14,2 C 12,8 C 81 % 0 lf 1015,4 hPa 0,0 l/m 0 min 0 min 5 W/m 18,8 km/h (3 Bft)
15.06.2015 05:54 14,2 C 12,8 C 81 % 0 lf 1015,3 hPa 0,0 l/m 0 min 0 min 5 W/m 16,7 km/h (3 Bft)
15.06.2015 05:56 14,1 C 12,8 C 81 % 0 lf 1015,5 hPa 0,0 l/m 0 min 0 min 5 W/m 12,6 km/h (3 Bft)
15.06.2015 05:58 14,1 C 12,8 C 81 % 0 lf 1015,5 hPa 0,0 l/m 0 min 0 min 5 W/m 18,8 km/h (3 Bft)
15.06.2015 06:00 14,1 C 12,8 C 81 % 0 lf 1015,5 hPa 0,0 l/m 0 min 0 min 5 W/m 18,8 km/h (3 Bft)
15.06.2015 06:02 14,1 C 12,8 C 81 % 0 lf 1015,5 hPa 0,0 l/m 0 min 0 min 7 W/m 16,7 km/h (3 Bft)
15.06.2015 06:06 14,1 C 12,8 C 81 % 0 lf 1015,5 hPa 0,0 l/m 0 min 0 min 7 W/m 25,1 km/h (4 Bft)
15.06.2015 06:08 14,1 C 12,8 C 81 % 0 lf 1015,5 hPa 0,0 l/m 0 min 0 min 7 W/m 16,7 km/h (3 Bft)
15.06.2015 06:10 14,1 C 12,8 C 81 % 0 lf 1015,6 hPa 0,0 l/m 0 min 0 min 7 W/m 23,0 km/h (4 Bft)
15.06.2015 06:12 14,1 C 12,8 C 81 % 0 lf 1015,6 hPa 0,0 l/m 0 min 0 min 7 W/m 23,0 km/h (4 Bft)
15.06.2015 06:14 14,0 C 12,8 C 81 % 0 lf 1015,6 hPa 0,0 l/m 0 min 0 min 9 W/m 23,0 km/h (4 Bft)
15.06.2015 06:16 14,0 C 12,8 C 81 % 0 lf 1015,6 hPa 0,0 l/m 0 min 0 min 9 W/m 20,9 km/h (4 Bft)
15.06.2015 06:18 13,9 C 12,8 C 81 % 0 lf 1015,6 hPa 0,0 l/m 0 min 0 min 9 W/m 16,7 km/h (3 Bft)
15.06.2015 06:20 13,9 C 12,8 C 82 % 0 lf 1015,6 hPa 0,0 l/m 0 min 0 min 9 W/m 18,8 km/h (3 Bft)
15.06.2015 06:22 13,9 C 12,8 C 82 % 0 lf 1015,6 hPa 0,0 l/m 0 min 0 min 9 W/m 18,8 km/h (3 Bft)
15.06.2015 06:24 13,9 C 12,8 C 82 % 0 lf 1015,7 hPa 0,0 l/m 0 min 0 min 9 W/m 16,7 km/h (3 Bft)
15.06.2015 06:26 13,9 C 12,8 C 82 % 0 lf 1015,7 hPa 0,0 l/m 0 min 0 min 11 W/m 16,7 km/h (3 Bft)
15.06.2015 06:28 13,9 C 12,8 C 82 % 0 lf 1015,7 hPa 0,0 l/m 0 min 0 min 11 W/m 16,7 km/h (3 Bft)
15.06.2015 06:30 13,9 C 12,8 C 82 % 0 lf 1015,8 hPa 0,0 l/m 0 min 0 min 11 W/m 20,9 km/h (4 Bft)
15.06.2015 06:32 13,9 C 12,8 C 82 % 0 lf 1015,8 hPa 0,0 l/m 0 min 0 min 11 W/m 14,6 km/h (3 Bft)
15.06.2015 06:34 13,9 C 12,8 C 82 % 0 lf 1015,8 hPa 0,0 l/m 0 min 0 min 12 W/m 25,1 km/h (4 Bft)
15.06.2015 06:36 13,9 C 12,8 C 83 % 0 lf 1015,8 hPa 0,0 l/m 0 min 0 min 14 W/m 23,0 km/h (4 Bft)
15.06.2015 06:38 13,8 C 12,2 C 83 % 0 lf 1015,9 hPa 0,0 l/m 0 min 0 min 14 W/m 18,8 km/h (3 Bft)
15.06.2015 06:40 13,8 C 12,2 C 84 % 0 lf 1015,9 hPa 0,0 l/m 0 min 0 min 14 W/m 20,9 km/h (4 Bft)
15.06.2015 06:42 13,7 C 12,2 C 84 % 0 lf 1015,9 hPa 0,0 l/m 0 min 0 min 13 W/m 20,9 km/h (4 Bft)
15.06.2015 06:44 13,7 C 12,2 C 84 % 0 lf 1016,0 hPa 0,0 l/m 0 min 0 min 12 W/m 20,9 km/h (4 Bft)
15.06.2015 06:46 13,7 C 12,2 C 84 % 0 lf 1016,0 hPa 0,0 l/m 0 min 0 min 12 W/m 18,8 km/h (3 Bft)
15.06.2015 06:48 13,6 C 12,2 C 85 % 1 lf 1016,1 hPa 0,0 l/m 0 min 0 min 13 W/m 18,8 km/h (3 Bft)
15.06.2015 06:50 13,6 C 12,2 C 85 % 1 lf 1016,1 hPa 0,0 l/m 0 min 0 min 15 W/m 18,8 km/h (3 Bft)
15.06.2015 06:52 13,5 C 12,2 C 85 % 1 lf 1016,1 hPa 0,0 l/m 0 min 0 min 15 W/m 23,0 km/h (4 Bft)
15.06.2015 06:54 13,4 C 11,7 C 86 % 1 lf 1016,1 hPa 0,0 l/m 0 min 0 min 15 W/m 29,3 km/h (5 Bft)
15.06.2015 06:56 13,3 C 11,7 C 86 % 1 lf 1016,1 hPa 0,0 l/m 0 min 0 min 14 W/m 25,1 km/h (4 Bft)
15.06.2015 06:58 13,2 C 11,7 C 87 % 1 lf 1016,2 hPa 0,0 l/m 0 min 0 min 17 W/m 18,8 km/h (3 Bft)
15.06.2015 07:00 13,2 C 11,7 C 87 % 1 lf 1016,3 hPa 0,0 l/m 0 min 0 min 19 W/m 25,1 km/h (4 Bft)
15.06.2015 07:02 13,1 C 11,7 C 87 % 2 lf 1016,2 hPa 0,0 l/m 0 min 0 min 20 W/m 25,1 km/h (4 Bft)
15.06.2015 07:04 13,0 C 11,7 C 87 % 2 lf 1016,3 hPa 0,0 l/m 0 min 0 min 21 W/m 25,1 km/h (4 Bft)
15.06.2015 07:06 12,9 C 11,7 C 88 % 2 lf 1016,3 hPa 0,0 l/m 0 min 0 min 25 W/m 23,0 km/h (4 Bft)
15.06.2015 07:08 12,9 C 11,7 C 88 % 2 lf 1016,3 hPa 0,0 l/m 0 min 0 min 24 W/m 29,3 km/h (5 Bft)
15.06.2015 07:10 12,8 C 11,7 C 88 % 2 lf 1016,4 hPa 0,0 l/m 0 min 0 min 21 W/m 25,1 km/h (4 Bft)
15.06.2015 07:12 12,7 C 11,7 C 89 % 2 lf 1016,4 hPa 0,0 l/m 0 min 0 min 21 W/m 27,2 km/h (4 Bft)
15.06.2015 07:14 12,7 C 11,7 C 89 % 2 lf 1016,4 hPa 0,0 l/m 0 min 0 min 24 W/m 23,0 km/h (4 Bft)
15.06.2015 07:16 12,7 C 11,7 C 89 % 4 lf 1016,4 hPa 0,0 l/m 0 min 0 min 23 W/m 25,1 km/h (4 Bft)
15.06.2015 07:18 12,6 C 11,7 C 89 % 4 lf 1016,5 hPa 0,0 l/m 0 min 0 min 23 W/m 27,2 km/h (4 Bft)
15.06.2015 07:20 12,6 C 11,1 C 89 % 7 lf 1016,5 hPa 0,0 l/m 0 min 0 min 25 W/m 27,2 km/h (4 Bft)
15.06.2015 07:22 12,5 C 11,1 C 89 % 4 lf 1016,5 hPa 0,0 l/m 0 min 0 min 28 W/m 25,1 km/h (4 Bft)
15.06.2015 07:24 12,4 C 11,7 C 90 % 2 lf 1016,5 hPa 0,0 l/m 0 min 0 min 26 W/m 23,0 km/h (4 Bft)
15.06.2015 07:26 12,4 C 11,7 C 90 % 1 lf 1016,6 hPa 0,0 l/m 0 min 0 min 26 W/m 20,9 km/h (4 Bft)
15.06.2015 07:28 12,4 C 11,7 C 90 % 1 lf 1016,7 hPa 0,0 l/m 0 min 0 min 26 W/m 14,6 km/h (3 Bft)
15.06.2015 07:30 12,4 C 11,7 C 90 % 1 lf 1016,7 hPa 0,0 l/m 0 min 0 min 27 W/m 23,0 km/h (4 Bft)
15.06.2015 07:32 12,3 C 11,7 C 90 % 1 lf 1016,7 hPa 0,0 l/m 0 min 0 min 27 W/m 25,1 km/h (4 Bft)
15.06.2015 07:34 12,3 C 11,7 C 90 % 1 lf 1016,7 hPa 0,0 l/m 0 min 0 min 28 W/m 16,7 km/h (3 Bft)
15.06.2015 07:36 12,3 C 11,7 C 90 % 2 lf 1016,8 hPa 0,0 l/m 0 min 0 min 28 W/m 16,7 km/h (3 Bft)
15.06.2015 07:38 12,3 C 11,7 C 90 % 1 lf 1016,8 hPa 0,0 l/m 0 min 0 min 29 W/m 16,7 km/h (3 Bft)
15.06.2015 07:40 12,3 C 11,7 C 91 % 1 lf 1016,8 hPa 0,0 l/m 0 min 0 min 28 W/m 10,5 km/h (2 Bft)
15.06.2015 07:42 12,4 C 11,7 C 91 % 1 lf 1016,9 hPa 0,0 l/m 0 min 0 min 31 W/m 12,6 km/h (3 Bft)
15.06.2015 07:44 12,4 C 11,7 C 91 % 1 lf 1016,9 hPa 0,0 l/m 0 min 0 min 35 W/m 14,6 km/h (3 Bft)
15.06.2015 07:46 12,4 C 11,7 C 91 % 1 lf 1016,9 hPa 0,0 l/m 0 min 0 min 37 W/m 18,8 km/h (3 Bft)
15.06.2015 07:48 12,3 C 11,7 C 91 % 1 lf 1016,9 hPa 0,0 l/m 0 min 0 min 36 W/m 12,6 km/h (3 Bft)
15.06.2015 07:50 12,3 C 11,7 C 91 % 1 lf 1017,0 hPa 0,0 l/m 0 min 0 min 35 W/m 14,6 km/h (3 Bft)
15.06.2015 07:52 12,3 C 11,7 C 91 % 1 lf 1017,0 hPa 0,0 l/m 0 min 0 min 35 W/m 12,6 km/h (3 Bft)
15.06.2015 07:54 12,3 C 11,7 C 91 % 1 lf 1017,0 hPa 0,0 l/m 0 min 0 min 37 W/m 16,7 km/h (3 Bft)
15.06.2015 07:56 12,3 C 11,7 C 91 % 1 lf 1017,1 hPa 0,0 l/m 0 min 0 min 39 W/m 14,6 km/h (3 Bft)
15.06.2015 07:58 12,3 C 11,7 C 91 % 1 lf 1017,1 hPa 0,0 l/m 0 min 0 min 40 W/m 16,7 km/h (3 Bft)
15.06.2015 08:00 12,2 C 11,7 C 90 % 0 lf 1017,1 hPa 0,0 l/m 0 min 0 min 39 W/m 23,0 km/h (4 Bft)
15.06.2015 08:02 12,2 C 11,7 C 90 % 0 lf 1017,1 hPa 0,0 l/m 0 min 0 min 39 W/m 25,1 km/h (4 Bft)
15.06.2015 08:04 12,2 C 11,7 C 90 % 0 lf 1017,2 hPa 0,0 l/m 0 min 0 min 38 W/m 23,0 km/h (4 Bft)
15.06.2015 08:06 12,2 C 11,7 C 89 % 0 lf 1017,3 hPa 0,0 l/m 0 min 0 min 39 W/m 27,2 km/h (4 Bft)
15.06.2015 08:08 12,2 C 11,7 C 89 % 0 lf 1017,3 hPa 0,0 l/m 0 min 0 min 40 W/m 16,7 km/h (3 Bft)
15.06.2015 08:10 12,2 C 11,7 C 88 % 0 lf 1017,3 hPa 0,0 l/m 0 min 0 min 42 W/m 23,0 km/h (4 Bft)
15.06.2015 08:12 12,3 C 11,7 C 89 % 1 lf 1017,3 hPa 0,0 l/m 0 min 0 min 45 W/m 18,8 km/h (3 Bft)
15.06.2015 08:14 12,3 C 11,7 C 89 % 1 lf 1017,4 hPa 0,0 l/m 0 min 0 min 46 W/m 16,7 km/h (3 Bft)
15.06.2015 08:16 12,4 C 11,7 C 89 % 1 lf 1017,4 hPa 0,0 l/m 0 min 0 min 46 W/m 20,9 km/h (4 Bft)
15.06.2015 08:18 12,4 C 11,7 C 89 % 0 lf 1017,4 hPa 0,0 l/m 0 min 0 min 49 W/m 23,0 km/h (4 Bft)
15.06.2015 08:20 12,4 C 11,7 C 89 % 0 lf 1017,4 hPa 0,0 l/m 0 min 0 min 53 W/m 16,7 km/h (3 Bft)
15.06.2015 08:22 12,4 C 11,7 C 88 % 0 lf 1017,3 hPa 0,0 l/m 0 min 0 min 58 W/m 14,6 km/h (3 Bft)
15.06.2015 08:24 12,4 C 12,2 C 88 % 0 lf 1017,4 hPa 0,0 l/m 0 min 0 min 62 W/m 16,7 km/h (3 Bft)
15.06.2015 08:26 12,4 C 12,2 C 88 % 0 lf 1017,4 hPa 0,0 l/m 0 min 0 min 68 W/m 16,7 km/h (3 Bft)
15.06.2015 08:28 12,4 C 12,2 C 88 % 0 lf 1017,4 hPa 0,0 l/m 0 min 0 min 69 W/m 14,6 km/h (3 Bft)
15.06.2015 08:30 12,4 C 12,2 C 87 % 0 lf 1017,4 hPa 0,0 l/m 0 min 0 min 67 W/m 18,8 km/h (3 Bft)
15.06.2015 08:32 12,5 C 12,2 C 87 % 0 lf 1017,5 hPa 0,0 l/m 0 min 0 min 66 W/m 18,8 km/h (3 Bft)
15.06.2015 08:34 12,5 C 12,2 C 87 % 0 lf 1017,5 hPa 0,0 l/m 0 min 0 min 65 W/m 16,7 km/h (3 Bft)
15.06.2015 08:36 12,5 C 12,2 C 87 % 0 lf 1017,5 hPa 0,0 l/m 0 min 0 min 68 W/m 23,0 km/h (4 Bft)
15.06.2015 08:38 12,6 C 12,2 C 86 % 0 lf 1017,6 hPa 0,0 l/m 0 min 0 min 71 W/m 16,7 km/h (3 Bft)
15.06.2015 08:40 12,6 C 12,2 C 86 % 0 lf 1017,5 hPa 0,0 l/m 0 min 0 min 76 W/m 20,9 km/h (4 Bft)
15.06.2015 08:42 12,6 C 12,2 C 86 % 0 lf 1017,6 hPa 0,0 l/m 0 min 0 min 82 W/m 18,8 km/h (3 Bft)
15.06.2015 08:44 12,6 C 12,2 C 85 % 0 lf 1017,5 hPa 0,0 l/m 0 min 0 min 86 W/m 20,9 km/h (4 Bft)
15.06.2015 08:46 12,7 C 12,2 C 85 % 0 lf 1017,6 hPa 0,0 l/m 0 min 0 min 90 W/m 18,8 km/h (3 Bft)
15.06.2015 08:48 12,7 C 12,2 C 85 % 0 lf 1017,6 hPa 0,0 l/m 0 min 0 min 94 W/m 20,9 km/h (4 Bft)
15.06.2015 08:50 12,7 C 12,2 C 85 % 0 lf 1017,7 hPa 0,0 l/m 0 min 0 min 98 W/m 20,9 km/h (4 Bft)
15.06.2015 08:52 12,7 C 12,2 C 85 % 0 lf 1017,6 hPa 0,0 l/m 0 min 0 min 100 W/m 16,7 km/h (3 Bft)
15.06.2015 08:54 12,8 C 12,2 C 85 % 0 lf 1017,7 hPa 0,0 l/m 0 min 0 min 102 W/m 16,7 km/h (3 Bft)
15.06.2015 08:56 12,8 C 12,2 C 84 % 0 lf 1017,6 hPa 0,0 l/m 0 min 0 min 101 W/m 20,9 km/h (4 Bft)
15.06.2015 08:58 12,8 C 12,2 C 84 % 0 lf 1017,7 hPa 0,0 l/m 0 min 0 min 99 W/m 14,6 km/h (3 Bft)
15.06.2015 09:00 12,8 C 12,8 C 84 % 0 lf 1017,7 hPa 0,0 l/m 0 min 0 min 102 W/m 14,6 km/h (3 Bft)
15.06.2015 09:02 12,9 C 12,8 C 84 % 0 lf 1017,7 hPa 0,0 l/m 0 min 0 min 107 W/m 12,6 km/h (3 Bft)
15.06.2015 09:04 12,9 C 12,8 C 84 % 0 lf 1017,7 hPa 0,0 l/m 0 min 0 min 109 W/m 18,8 km/h (3 Bft)
15.06.2015 09:06 12,9 C 12,8 C 83 % 0 lf 1017,7 hPa 0,0 l/m 0 min 0 min 106 W/m 14,6 km/h (3 Bft)
15.06.2015 09:08 12,9 C 12,8 C 83 % 0 lf 1017,7 hPa 0,0 l/m 0 min 0 min 104 W/m 23,0 km/h (4 Bft)
15.06.2015 09:10 13,0 C 12,8 C 83 % 0 lf 1017,7 hPa 0,0 l/m 0 min 0 min 104 W/m 16,7 km/h (3 Bft)
15.06.2015 09:12 13,1 C 12,8 C 83 % 0 lf 1017,7 hPa 0,0 l/m 0 min 0 min 101 W/m 18,8 km/h (3 Bft)
15.06.2015 09:14 13,1 C 12,2 C 83 % 0 lf 1017,7 hPa 0,0 l/m 0 min 0 min 96 W/m 14,6 km/h (3 Bft)
15.06.2015 09:16 13,1 C 12,2 C 83 % 0 lf 1017,7 hPa 0,0 l/m 0 min 0 min 90 W/m 16,7 km/h (3 Bft)
15.06.2015 09:18 13,1 C 12,2 C 83 % 0 lf 1017,8 hPa 0,0 l/m 0 min 0 min 87 W/m 16,7 km/h (3 Bft)
15.06.2015 09:20 13,1 C 12,2 C 83 % 0 lf 1017,8 hPa 0,0 l/m 0 min 0 min 86 W/m 14,6 km/h (3 Bft)
15.06.2015 09:22 13,1 C 12,8 C 83 % 0 lf 1017,8 hPa 0,0 l/m 0 min 0 min 90 W/m 12,6 km/h (3 Bft)
15.06.2015 09:24 13,2 C 12,8 C 83 % 0 lf 1017,8 hPa 0,0 l/m 0 min 0 min 94 W/m 14,6 km/h (3 Bft)
15.06.2015 09:26 13,2 C 12,8 C 82 % 0 lf 1017,8 hPa 0,0 l/m 0 min 0 min 96 W/m 20,9 km/h (4 Bft)
15.06.2015 09:28 13,2 C 12,8 C 82 % 0 lf 1017,9 hPa 0,0 l/m 0 min 0 min 98 W/m 18,8 km/h (3 Bft)
15.06.2015 09:30 13,1 C 12,8 C 81 % 0 lf 1017,9 hPa 0,0 l/m 0 min 0 min 100 W/m 16,7 km/h (3 Bft)
15.06.2015 09:32 13,2 C 12,8 C 81 % 0 lf 1017,9 hPa 0,0 l/m 0 min 0 min 104 W/m 18,8 km/h (3 Bft)
15.06.2015 09:34 13,2 C 12,8 C 80 % 0 lf 1017,9 hPa 0,0 l/m 0 min 0 min 106 W/m 20,9 km/h (4 Bft)
15.06.2015 09:36 13,2 C 12,8 C 80 % 0 lf 1017,9 hPa 0,0 l/m 0 min 0 min 109 W/m 25,1 km/h (4 Bft)
15.06.2015 09:38 13,2 C 12,8 C 80 % 0 lf 1018,0 hPa 0,0 l/m 0 min 0 min 113 W/m 25,1 km/h (4 Bft)
15.06.2015 09:40 13,2 C 12,8 C 80 % 0 lf 1017,9 hPa 0,0 l/m 0 min 0 min 119 W/m 18,8 km/h (3 Bft)
15.06.2015 09:42 13,2 C 12,8 C 80 % 0 lf 1017,9 hPa 0,0 l/m 0 min 0 min 128 W/m 20,9 km/h (4 Bft)
15.06.2015 09:44 13,2 C 12,8 C 79 % 0 lf 1017,9 hPa 0,0 l/m 0 min 0 min 135 W/m 25,1 km/h (4 Bft)
15.06.2015 09:46 13,2 C 12,8 C 79 % 0 lf 1017,9 hPa 0,0 l/m 0 min 0 min 146 W/m 23,0 km/h (4 Bft)
15.06.2015 09:48 13,2 C 12,8 C 79 % 0 lf 1017,9 hPa 0,0 l/m 0 min 0 min 154 W/m 23,0 km/h (4 Bft)
15.06.2015 09:50 13,3 C 12,8 C 79 % 0 lf 1018,0 hPa 0,0 l/m 0 min 0 min 162 W/m 18,8 km/h (3 Bft)
15.06.2015 09:52 13,3 C 12,8 C 78 % 0 lf 1018,0 hPa 0,0 l/m 0 min 0 min 165 W/m 20,9 km/h (4 Bft)
15.06.2015 09:54 13,3 C 13,3 C 78 % 0 lf 1018,0 hPa 0,0 l/m 0 min 0 min 172 W/m 23,0 km/h (4 Bft)
15.06.2015 09:56 13,4 C 13,3 C 78 % 0 lf 1018,0 hPa 0,0 l/m 0 min 0 min 176 W/m 23,0 km/h (4 Bft)
15.06.2015 09:58 13,4 C 13,3 C 78 % 0 lf 1018,0 hPa 0,0 l/m 0 min 0 min 183 W/m 25,1 km/h (4 Bft)
15.06.2015 10:00 13,4 C 13,3 C 77 % 0 lf 1018,0 hPa 0,0 l/m 0 min 0 min 187 W/m 27,2 km/h (4 Bft)
15.06.2015 10:02 13,5 C 13,3 C 78 % 0 lf 1018,0 hPa 0,0 l/m 0 min 0 min 190 W/m 16,7 km/h (3 Bft)
15.06.2015 10:04 13,6 C 13,9 C 78 % 0 lf 1018,1 hPa 0,0 l/m 0 min 0 min 194 W/m 23,0 km/h (4 Bft)
15.06.2015 10:06 13,6 C 13,9 C 77 % 0 lf 1018,0 hPa 0,0 l/m 0 min 0 min 199 W/m 16,7 km/h (3 Bft)
15.06.2015 10:08 13,7 C 13,9 C 77 % 0 lf 1018,1 hPa 0,0 l/m 0 min 0 min 206 W/m 23,0 km/h (4 Bft)
15.06.2015 10:10 13,7 C 13,9 C 77 % 0 lf 1018,2 hPa 0,0 l/m 0 min 0 min 216 W/m 23,0 km/h (4 Bft)
15.06.2015 10:12 13,8 C 13,9 C 77 % 0 lf 1018,2 hPa 0,0 l/m 0 min 0 min 228 W/m 23,0 km/h (4 Bft)
15.06.2015 10:14 13,8 C 13,9 C 76 % 0 lf 1018,1 hPa 0,0 l/m 0 min 0 min 238 W/m 25,1 km/h (4 Bft)
15.06.2015 10:16 13,9 C 13,9 C 76 % 0 lf 1018,0 hPa 0,0 l/m 0 min 0 min 247 W/m 18,8 km/h (3 Bft)
15.06.2015 10:18 13,9 C 13,9 C 76 % 0 lf 1018,2 hPa 0,0 l/m 0 min 0 min 256 W/m 18,8 km/h (3 Bft)
15.06.2015 10:20 13,9 C 13,9 C 76 % 0 lf 1018,2 hPa 0,0 l/m 0 min 0 min 265 W/m 25,1 km/h (4 Bft)
15.06.2015 10:22 14,0 C 13,9 C 76 % 0 lf 1018,2 hPa 0,0 l/m 0 min 0 min 273 W/m 27,2 km/h (4 Bft)
15.06.2015 10:24 14,1 C 13,9 C 75 % 0 lf 1018,2 hPa 0,0 l/m 0 min 0 min 283 W/m 23,0 km/h (4 Bft)
15.06.2015 10:26 14,1 C 13,9 C 75 % 0 lf 1018,2 hPa 0,0 l/m 0 min 0 min 291 W/m 23,0 km/h (4 Bft)
15.06.2015 10:28 14,1 C 13,9 C 75 % 0 lf 1018,2 hPa 0,0 l/m 0 min 0 min 298 W/m 18,8 km/h (3 Bft)
15.06.2015 10:30 14,2 C 13,9 C 75 % 0 lf 1018,3 hPa 0,0 l/m 0 min 0 min 307 W/m 18,8 km/h (3 Bft)
15.06.2015 10:32 14,2 C 13,9 C 75 % 0 lf 1018,3 hPa 0,0 l/m 0 min 0 min 315 W/m 25,1 km/h (4 Bft)
15.06.2015 10:34 14,2 C 14,4 C 75 % 0 lf 1018,3 hPa 0,0 l/m 0 min 0 min 338 W/m 16,7 km/h (3 Bft)
15.06.2015 10:36 14,2 C 14,4 C 74 % 0 lf 1018,3 hPa 0,0 l/m 2 min 0 min 351 W/m 20,9 km/h (4 Bft)
15.06.2015 10:38 14,2 C 14,4 C 75 % 0 lf 1018,3 hPa 0,0 l/m 2 min 0 min 378 W/m 20,9 km/h (4 Bft)
15.06.2015 10:40 14,3 C 14,4 C 75 % 0 lf 1018,4 hPa 0,0 l/m 2 min 0 min 420 W/m 23,0 km/h (4 Bft)
15.06.2015 10:42 14,4 C 15,0 C 74 % 0 lf 1018,4 hPa 0,0 l/m 2 min 0 min 398 W/m 25,1 km/h (4 Bft)
15.06.2015 10:44 14,5 C 15,0 C 74 % 0 lf 1018,4 hPa 0,0 l/m 2 min 0 min 433 W/m 23,0 km/h (4 Bft)
15.06.2015 10:46 14,6 C 15,6 C 74 % 0 lf 1018,4 hPa 0,0 l/m 2 min 0 min 425 W/m 25,1 km/h (4 Bft)
15.06.2015 10:48 14,7 C 15,6 C 74 % 0 lf 1018,4 hPa 0,0 l/m 2 min 0 min 448 W/m 20,9 km/h (4 Bft)
15.06.2015 10:50 14,8 C 16,1 C 74 % 0 lf 1018,4 hPa 0,0 l/m 2 min 0 min 547 W/m 20,9 km/h (4 Bft)
15.06.2015 10:52 14,9 C 15,6 C 73 % 0 lf 1018,4 hPa 0,0 l/m 2 min 0 min 540 W/m 33,5 km/h (5 Bft)
15.06.2015 10:54 15,0 C 15,6 C 72 % 0 lf 1018,5 hPa 0,0 l/m 2 min 0 min 508 W/m 23,0 km/h (4 Bft)
15.06.2015 10:56 15,1 C 16,1 C 73 % 0 lf 1018,4 hPa 0,0 l/m 2 min 0 min 585 W/m 29,3 km/h (5 Bft)
15.06.2015 10:58 15,2 C 16,1 C 72 % 0 lf 1018,4 hPa 0,0 l/m 2 min 0 min 580 W/m 31,4 km/h (5 Bft)
15.06.2015 11:00 15,3 C 16,7 C 72 % 0 lf 1018,4 hPa 0,0 l/m 2 min 0 min 580 W/m 25,1 km/h (4 Bft)
15.06.2015 11:02 15,4 C 17,2 C 71 % 0 lf 1018,4 hPa 0,0 l/m 2 min 0 min 590 W/m 27,2 km/h (4 Bft)
15.06.2015 11:04 15,4 C 18,3 C 72 % 0 lf 1018,5 hPa 0,0 l/m 2 min 0 min 591 W/m 31,4 km/h (5 Bft)
15.06.2015 11:06 15,6 C 17,8 C 70 % 0 lf 1018,5 hPa 0,0 l/m 2 min 0 min 649 W/m 29,3 km/h (5 Bft)
15.06.2015 11:08 15,7 C 17,8 C 70 % 0 lf 1018,5 hPa 0,0 l/m 2 min 0 min 756 W/m 29,3 km/h (5 Bft)
15.06.2015 11:10 15,7 C 18,3 C 70 % 0 lf 1018,5 hPa 0,0 l/m 2 min 0 min 756 W/m 25,1 km/h (4 Bft)
15.06.2015 11:12 15,9 C 18,9 C 70 % 0 lf 1018,5 hPa 0,0 l/m 2 min 0 min 729 W/m 20,9 km/h (4 Bft)
15.06.2015 11:14 16,0 C 18,9 C 69 % 0 lf 1018,5 hPa 0,0 l/m 2 min 0 min 869 W/m 29,3 km/h (5 Bft)
15.06.2015 11:16 16,1 C 19,4 C 69 % 0 lf 1018,5 hPa 0,0 l/m 2 min 0 min 990 W/m 18,8 km/h (3 Bft)
15.06.2015 11:18 16,2 C 20,0 C 69 % 0 lf 1018,6 hPa 0,0 l/m 2 min 0 min 756 W/m 23,0 km/h (4 Bft)
15.06.2015 11:20 16,4 C 20,0 C 69 % 0 lf 1018,6 hPa 0,0 l/m 2 min 0 min 709 W/m 20,9 km/h (4 Bft)
15.06.2015 11:22 16,6 C 20,6 C 68 % 0 lf 1018,5 hPa 0,0 l/m 2 min 0 min 1023 W/m 18,8 km/h (3 Bft)
15.06.2015 11:24 16,7 C 20,0 C 67 % 0 lf 1018,6 hPa 0,0 l/m 2 min 0 min 863 W/m 25,1 km/h (4 Bft)
15.06.2015 11:26 16,8 C 20,6 C 67 % 0 lf 1018,7 hPa 0,0 l/m 2 min 0 min 924 W/m 25,1 km/h (4 Bft)
15.06.2015 11:28 17,1 C 20,6 C 67 % 0 lf 1018,6 hPa 0,0 l/m 2 min 0 min 905 W/m 25,1 km/h (4 Bft)
15.06.2015 11:30 17,2 C 20,0 C 65 % 0 lf 1018,6 hPa 0,0 l/m 2 min 0 min 907 W/m 20,9 km/h (4 Bft)
15.06.2015 11:32 17,2 C 20,6 C 65 % 0 lf 1018,6 hPa 0,0 l/m 2 min 0 min 933 W/m 18,8 km/h (3 Bft)
15.06.2015 11:34 17,4 C 19,4 C 66 % 0 lf 1018,6 hPa 0,0 l/m 2 min 0 min 956 W/m 10,5 km/h (2 Bft)
15.06.2015 11:36 17,5 C 19,4 C 66 % 0 lf 1018,6 hPa 0,0 l/m 2 min 0 min 917 W/m 16,7 km/h (3 Bft)
15.06.2015 11:38 17,6 C 19,4 C 66 % 0 lf 1018,6 hPa 0,0 l/m 2 min 0 min 851 W/m 16,7 km/h (3 Bft)
15.06.2015 11:40 17,7 C 18,9 C 65 % 0 lf 1018,6 hPa 0,0 l/m 2 min 0 min 880 W/m 20,9 km/h (4 Bft)
15.06.2015 11:42 17,8 C 20,0 C 66 % 0 lf 1018,6 hPa 0,0 l/m 2 min 0 min 969 W/m 18,8 km/h (3 Bft)
15.06.2015 11:44 17,8 C 19,4 C 65 % 0 lf 1018,7 hPa 0,0 l/m 2 min 0 min 969 W/m 23,0 km/h (4 Bft)
15.06.2015 11:46 17,8 C 18,9 C 64 % 0 lf 1018,6 hPa 0,0 l/m 2 min 0 min 969 W/m 23,0 km/h (4 Bft)
15.06.2015 11:48 17,7 C 18,3 C 64 % 0 lf 1018,9 hPa 0,0 l/m 2 min 0 min 516 W/m 20,9 km/h (4 Bft)
15.06.2015 11:50 17,7 C 17,8 C 65 % 0 lf 1018,7 hPa 0,0 l/m 2 min 0 min 427 W/m 20,9 km/h (4 Bft)
15.06.2015 11:52 17,6 C 17,2 C 65 % 0 lf 1018,8 hPa 0,0 l/m 0 min 0 min 361 W/m 23,0 km/h (4 Bft)
15.06.2015 11:54 17,4 C 18,3 C 65 % 0 lf 1018,8 hPa 0,0 l/m 0 min 0 min 353 W/m 27,2 km/h (4 Bft)
15.06.2015 11:56 17,4 C 19,4 C 65 % 0 lf 1018,8 hPa 0,0 l/m 2 min 0 min 447 W/m 27,2 km/h (4 Bft)
15.06.2015 11:58 17,4 C 19,4 C 65 % 0 lf 1018,8 hPa 0,0 l/m 2 min 0 min 1107 W/m 27,2 km/h (4 Bft)
15.06.2015 12:00 17,4 C 18,3 C 65 % 0 lf 1018,8 hPa 0,0 l/m 0 min 0 min 373 W/m 29,3 km/h (5 Bft)
15.06.2015 12:02 17,3 C 19,4 C 64 % 0 lf 1018,9 hPa 0,0 l/m 0 min 0 min 352 W/m 25,1 km/h (4 Bft)
15.06.2015 12:05 17,3 C 21,7 C 66 % 0 lf 1018,7 hPa 0,0 l/m 2 min 0 min 954 W/m 20,9 km/h (4 Bft)
15.06.2015 12:06 17,4 C 21,1 C 65 % 0 lf 1018,9 hPa 0,0 l/m 1 min 0 min 944 W/m 20,9 km/h (4 Bft)
15.06.2015 12:08 17,4 C 21,7 C 65 % 0 lf 1018,8 hPa 0,0 l/m 2 min 0 min 939 W/m 29,3 km/h (5 Bft)
15.06.2015 12:10 17,6 C 21,1 C 64 % 0 lf 1019,0 hPa 0,0 l/m 2 min 0 min 927 W/m 23,0 km/h (4 Bft)
15.06.2015 12:12 17,6 C 21,1 C 64 % 0 lf 1018,8 hPa 0,0 l/m 2 min 0 min 928 W/m 20,9 km/h (4 Bft)
15.06.2015 12:14 17,7 C 21,7 C 65 % 0 lf 1018,9 hPa 0,0 l/m 2 min 0 min 964 W/m 25,1 km/h (4 Bft)
15.06.2015 12:16 17,8 C 22,2 C 65 % 0 lf 1018,9 hPa 0,0 l/m 2 min 0 min 981 W/m 18,8 km/h (3 Bft)
15.06.2015 12:18 17,9 C 21,1 C 64 % 0 lf 1019,1 hPa 0,0 l/m 2 min 0 min 762 W/m 27,2 km/h (4 Bft)
15.06.2015 12:20 18,0 C 21,1 C 64 % 0 lf 1019,0 hPa 0,0 l/m 2 min 0 min 425 W/m 23,0 km/h (4 Bft)
15.06.2015 12:22 18,1 C 21,7 C 63 % 0 lf 1019,0 hPa 0,0 l/m 0 min 0 min 345 W/m 25,1 km/h (4 Bft)
15.06.2015 12:24 18,1 C 21,1 C 64 % 0 lf 1018,9 hPa 0,0 l/m 0 min 0 min 345 W/m 16,7 km/h (3 Bft)
15.06.2015 12:26 18,2 C 21,1 C 63 % 0 lf 1019,0 hPa 0,0 l/m 0 min 0 min 345 W/m 25,1 km/h (4 Bft)
15.06.2015 12:28 18,3 C 20,6 C 63 % 0 lf 1019,0 hPa 0,0 l/m 0 min 0 min 345 W/m 25,1 km/h (4 Bft)
15.06.2015 12:30 18,4 C 21,7 C 63 % 0 lf 1019,0 hPa 0,0 l/m 0 min 0 min 395 W/m 23,0 km/h (4 Bft)
15.06.2015 12:32 18,6 C 21,7 C 63 % 0 lf 1019,0 hPa 0,0 l/m 2 min 0 min 1141 W/m 25,1 km/h (4 Bft)
15.06.2015 12:34 18,7 C 21,7 C 62 % 0 lf 1019,0 hPa 0,0 l/m 2 min 0 min 1141 W/m 23,0 km/h (4 Bft)
15.06.2015 12:36 18,8 C 20,6 C 62 % 0 lf 1019,1 hPa 0,0 l/m 2 min 0 min 1141 W/m 18,8 km/h (3 Bft)
15.06.2015 12:38 18,8 C 19,4 C 61 % 0 lf 1019,1 hPa 0,0 l/m 2 min 0 min 1004 W/m 23,0 km/h (4 Bft)
15.06.2015 12:40 18,9 C 19,4 C 61 % 0 lf 1019,0 hPa 0,0 l/m 2 min 0 min 428 W/m 14,6 km/h (3 Bft)
15.06.2015 12:42 18,9 C 21,1 C 61 % 0 lf 1019,1 hPa 0,0 l/m 0 min 0 min 411 W/m 20,9 km/h (4 Bft)
15.06.2015 12:44 19,1 C 21,7 C 61 % 0 lf 1019,1 hPa 0,0 l/m 2 min 0 min 822 W/m 18,8 km/h (3 Bft)
15.06.2015 12:46 19,2 C 20,6 C 60 % 0 lf 1019,0 hPa 0,0 l/m 2 min 0 min 1048 W/m 20,9 km/h (4 Bft)
15.06.2015 12:48 19,2 C 19,4 C 60 % 0 lf 1019,0 hPa 0,0 l/m 2 min 0 min 424 W/m 20,9 km/h (4 Bft)
15.06.2015 12:50 19,2 C 19,4 C 60 % 0 lf 1019,1 hPa 0,0 l/m 0 min 0 min 388 W/m 18,8 km/h (3 Bft)
15.06.2015 12:52 19,2 C 19,4 C 58 % 0 lf 1019,1 hPa 0,0 l/m 2 min 0 min 961 W/m 18,8 km/h (3 Bft)
15.06.2015 12:54 19,2 C 19,4 C 59 % 0 lf 1019,1 hPa 0,0 l/m 2 min 0 min 1082 W/m 20,9 km/h (4 Bft)
15.06.2015 12:56 19,2 C 18,9 C 59 % 0 lf 1019,1 hPa 0,0 l/m 2 min 0 min 947 W/m 23,0 km/h (4 Bft)
15.06.2015 12:58 19,2 C 20,0 C 59 % 0 lf 1019,1 hPa 0,0 l/m 2 min 0 min 497 W/m 18,8 km/h (3 Bft)
15.06.2015 13:00 19,3 C 18,9 C 58 % 0 lf 1019,2 hPa 0,0 l/m 2 min 0 min 853 W/m 20,9 km/h (4 Bft)
15.06.2015 13:02 19,3 C 18,9 C 59 % 0 lf 1019,2 hPa 0,0 l/m 2 min 0 min 1155 W/m 16,7 km/h (3 Bft)
15.06.2015 13:04 19,3 C 18,9 C 60 % 0 lf 1019,2 hPa 0,0 l/m 2 min 0 min 478 W/m 18,8 km/h (3 Bft)
15.06.2015 13:06 19,2 C 18,3 C 59 % 0 lf 1019,2 hPa 0,0 l/m 0 min 0 min 357 W/m 18,8 km/h (3 Bft)
15.06.2015 13:08 19,2 C 20,0 C 59 % 0 lf 1019,2 hPa 0,0 l/m 2 min 0 min 559 W/m 18,8 km/h (3 Bft)
15.06.2015 13:10 19,2 C 21,7 C 60 % 0 lf 1019,3 hPa 0,0 l/m 2 min 0 min 1076 W/m 18,8 km/h (3 Bft)
15.06.2015 13:12 19,2 C 21,1 C 60 % 0 lf 1019,3 hPa 0,0 l/m 2 min 0 min 1090 W/m 25,1 km/h (4 Bft)
15.06.2015 13:14 19,2 C 20,0 C 59 % 0 lf 1019,3 hPa 0,0 l/m 2 min 0 min 898 W/m 20,9 km/h (4 Bft)
15.06.2015 13:16 19,3 C 20,0 C 60 % 0 lf 1019,2 hPa 0,0 l/m 2 min 0 min 464 W/m 18,8 km/h (3 Bft)
15.06.2015 13:18 19,3 C 20,6 C 59 % 0 lf 1019,3 hPa 0,0 l/m 2 min 0 min 659 W/m 14,6 km/h (3 Bft)
15.06.2015 13:20 19,3 C 21,1 C 59 % 0 lf 1019,3 hPa 0,0 l/m 2 min 0 min 1052 W/m 10,5 km/h (2 Bft)
15.06.2015 13:22 19,5 C 21,1 C 60 % 0 lf 1019,3 hPa 0,0 l/m 2 min 0 min 1103 W/m 25,1 km/h (4 Bft)
15.06.2015 13:24 19,6 C 20,0 C 58 % 0 lf 1019,3 hPa 0,0 l/m 2 min 0 min 1106 W/m 31,4 km/h (5 Bft)
15.06.2015 13:26 19,6 C 19,4 C 57 % 0 lf 1019,3 hPa 0,0 l/m 2 min 0 min 922 W/m 20,9 km/h (4 Bft)
15.06.2015 13:28 19,6 C 19,4 C 58 % 0 lf 1019,3 hPa 0,0 l/m 2 min 0 min 762 W/m 20,9 km/h (4 Bft)
15.06.2015 13:30 19,6 C 19,4 C 58 % 0 lf 1019,3 hPa 0,0 l/m 2 min 0 min 1049 W/m 18,8 km/h (3 Bft)
15.06.2015 13:32 19,7 C 20,0 C 58 % 0 lf 1019,2 hPa 0,0 l/m 2 min 0 min 1047 W/m 18,8 km/h (3 Bft)
15.06.2015 13:34 19,7 C 20,0 C 58 % 0 lf 1019,2 hPa 0,0 l/m 2 min 0 min 1066 W/m 18,8 km/h (3 Bft)
15.06.2015 13:36 19,8 C 20,0 C 58 % 0 lf 1019,2 hPa 0,0 l/m 2 min 0 min 470 W/m 20,9 km/h (4 Bft)
15.06.2015 13:38 19,9 C 20,0 C 58 % 0 lf 1019,2 hPa 0,0 l/m 2 min 0 min 991 W/m 20,9 km/h (4 Bft)
15.06.2015 13:40 20,0 C 19,4 C 57 % 0 lf 1019,2 hPa 0,0 l/m 0 min 0 min 425 W/m 27,2 km/h (4 Bft)
15.06.2015 13:42 19,9 C 18,9 C 56 % 0 lf 1019,2 hPa 0,0 l/m 2 min 0 min 585 W/m 20,9 km/h (4 Bft)
15.06.2015 13:44 19,9 C 19,4 C 57 % 0 lf 1019,2 hPa 0,0 l/m 2 min 0 min 814 W/m 20,9 km/h (4 Bft)
15.06.2015 13:46 19,9 C 20,0 C 57 % 0 lf 1019,2 hPa 0,0 l/m 2 min 0 min 954 W/m 16,7 km/h (3 Bft)
15.06.2015 13:48 20,0 C 20,0 C 57 % 0 lf 1019,1 hPa 0,0 l/m 2 min 0 min 958 W/m 10,5 km/h (2 Bft)
15.06.2015 13:50 20,1 C 20,0 C 56 % 0 lf 1019,2 hPa 0,0 l/m 2 min 0 min 962 W/m 20,9 km/h (4 Bft)
15.06.2015 13:52 20,2 C 20,0 C 56 % 0 lf 1019,1 hPa 0,0 l/m 2 min 0 min 1008 W/m 23,0 km/h (4 Bft)
15.06.2015 13:54 20,3 C 20,0 C 55 % 0 lf 1019,2 hPa 0,0 l/m 2 min 0 min 999 W/m 23,0 km/h (4 Bft)
15.06.2015 13:56 20,3 C 20,0 C 55 % 0 lf 1019,3 hPa 0,0 l/m 2 min 0 min 568 W/m 23,0 km/h (4 Bft)
15.06.2015 13:58 20,3 C 19,4 C 54 % 0 lf 1019,1 hPa 0,0 l/m 0 min 0 min 421 W/m 25,1 km/h (4 Bft)
15.06.2015 14:00 20,2 C 18,9 C 54 % 0 lf 1019,2 hPa 0,0 l/m 0 min 0 min 338 W/m 18,8 km/h (3 Bft)
15.06.2015 14:02 20,1 C 18,9 C 54 % 0 lf 1019,2 hPa 0,0 l/m 0 min 0 min 352 W/m 23,0 km/h (4 Bft)
15.06.2015 14:04 19,9 C 19,4 C 55 % 0 lf 1019,2 hPa 0,0 l/m 2 min 0 min 1027 W/m 16,7 km/h (3 Bft)
15.06.2015 14:06 19,9 C 20,0 C 56 % 0 lf 1019,3 hPa 0,0 l/m 2 min 0 min 1123 W/m 23,0 km/h (4 Bft)
15.06.2015 14:08 20,0 C 20,0 C 56 % 0 lf 1019,3 hPa 0,0 l/m 2 min 0 min 1132 W/m 27,2 km/h (4 Bft)
15.06.2015 14:10 20,1 C 20,0 C 55 % 0 lf 1019,3 hPa 0,0 l/m 2 min 0 min 1079 W/m 23,0 km/h (4 Bft)
15.06.2015 14:12 20,2 C 20,6 C 55 % 0 lf 1019,2 hPa 0,0 l/m 2 min 0 min 1060 W/m 23,0 km/h (4 Bft)
15.06.2015 14:14 20,3 C 21,1 C 55 % 0 lf 1019,2 hPa 0,0 l/m 2 min 0 min 1082 W/m 18,8 km/h (3 Bft)
15.06.2015 14:16 20,5 C 20,6 C 54 % 0 lf 1019,1 hPa 0,0 l/m 2 min 0 min 965 W/m 14,6 km/h (3 Bft)
15.06.2015 14:18 20,6 C 20,6 C 54 % 0 lf 1019,1 hPa 0,0 l/m 2 min 0 min 485 W/m 16,7 km/h (3 Bft)
15.06.2015 14:20 20,7 C 20,6 C 54 % 0 lf 1019,1 hPa 0,0 l/m 2 min 0 min 485 W/m 16,7 km/h (3 Bft)
15.06.2015 14:22 20,7 C 20,0 C 53 % 0 lf 1019,1 hPa 0,0 l/m 2 min 0 min 451 W/m 20,9 km/h (4 Bft)
15.06.2015 14:24 20,7 C 20,0 C 53 % 0 lf 1019,1 hPa 0,0 l/m 2 min 0 min 878 W/m 23,0 km/h (4 Bft)
15.06.2015 14:26 20,6 C 19,4 C 52 % 0 lf 1019,1 hPa 0,0 l/m 0 min 0 min 319 W/m 16,7 km/h (3 Bft)
15.06.2015 14:28 20,5 C 20,0 C 53 % 0 lf 1019,2 hPa 0,0 l/m 2 min 0 min 476 W/m 20,9 km/h (4 Bft)
15.06.2015 14:30 20,5 C 19,4 C 53 % 0 lf 1019,1 hPa 0,0 l/m 2 min 0 min 745 W/m 20,9 km/h (4 Bft)
15.06.2015 14:32 20,4 C 19,4 C 53 % 0 lf 1019,1 hPa 0,0 l/m 2 min 0 min 545 W/m 20,9 km/h (4 Bft)
15.06.2015 14:34 20,3 C 19,4 C 53 % 0 lf 1019,2 hPa 0,0 l/m 2 min 0 min 925 W/m 23,0 km/h (4 Bft)
15.06.2015 14:36 20,3 C 19,4 C 54 % 0 lf 1019,1 hPa 0,0 l/m 2 min 0 min 932 W/m 14,6 km/h (3 Bft)
15.06.2015 14:38 20,3 C 20,0 C 53 % 0 lf 1019,0 hPa 0,0 l/m 2 min 0 min 929 W/m 16,7 km/h (3 Bft)
15.06.2015 14:40 20,3 C 20,0 C 53 % 0 lf 1019,0 hPa 0,0 l/m 2 min 0 min 915 W/m 23,0 km/h (4 Bft)
15.06.2015 14:42 20,3 C 19,4 C 53 % 0 lf 1019,1 hPa 0,0 l/m 0 min 0 min 303 W/m 20,9 km/h (4 Bft)
15.06.2015 14:44 20,3 C 18,9 C 52 % 0 lf 1019,1 hPa 0,0 l/m 0 min 0 min 199 W/m 18,8 km/h (3 Bft)
15.06.2015 14:46 20,2 C 18,9 C 52 % 0 lf 1019,1 hPa 0,0 l/m 0 min 0 min 251 W/m 25,1 km/h (4 Bft)
15.06.2015 14:48 20,2 C 19,4 C 53 % 0 lf 1019,1 hPa 0,0 l/m 2 min 0 min 712 W/m 25,1 km/h (4 Bft)
15.06.2015 14:50 20,2 C 19,4 C 52 % 0 lf 1019,0 hPa 0,0 l/m 2 min 0 min 893 W/m 18,8 km/h (3 Bft)
15.06.2015 14:52 20,2 C 19,4 C 53 % 0 lf 1019,1 hPa 0,0 l/m 2 min 0 min 901 W/m 18,8 km/h (3 Bft)
15.06.2015 14:54 20,2 C 20,0 C 53 % 0 lf 1019,0 hPa 0,0 l/m 2 min 0 min 906 W/m 20,9 km/h (4 Bft)
15.06.2015 14:56 20,3 C 20,0 C 53 % 0 lf 1019,1 hPa 0,0 l/m 2 min 0 min 901 W/m 31,4 km/h (5 Bft)
15.06.2015 14:58 20,4 C 20,0 C 53 % 0 lf 1018,9 hPa 0,0 l/m 2 min 0 min 893 W/m 18,8 km/h (3 Bft)
15.06.2015 15:00 20,5 C 20,0 C 52 % 0 lf 1019,0 hPa 0,0 l/m 2 min 0 min 903 W/m 16,7 km/h (3 Bft)
15.06.2015 15:02 20,6 C 20,0 C 52 % 0 lf 1018,9 hPa 0,0 l/m 2 min 0 min 896 W/m 16,7 km/h (3 Bft)
15.06.2015 15:04 20,6 C 20,0 C 52 % 0 lf 1018,9 hPa 0,0 l/m 2 min 0 min 902 W/m 14,6 km/h (3 Bft)
15.06.2015 15:06 20,7 C 20,6 C 52 % 0 lf 1018,9 hPa 0,0 l/m 2 min 0 min 910 W/m 23,0 km/h (4 Bft)
15.06.2015 15:08 20,8 C 20,6 C 53 % 0 lf 1018,8 hPa 0,0 l/m 2 min 0 min 903 W/m 14,6 km/h (3 Bft)
15.06.2015 15:10 20,9 C 20,6 C 51 % 0 lf 1019,0 hPa 0,0 l/m 2 min 0 min 878 W/m 29,3 km/h (5 Bft)
15.06.2015 15:12 21,0 C 20,6 C 51 % 0 lf 1019,0 hPa 0,0 l/m 2 min 0 min 870 W/m 27,2 km/h (4 Bft)
15.06.2015 15:14 21,0 C 20,6 C 51 % 0 lf 1019,1 hPa 0,0 l/m 2 min 0 min 874 W/m 18,8 km/h (3 Bft)
15.06.2015 15:16 21,1 C 20,6 C 51 % 0 lf 1019,0 hPa 0,0 l/m 2 min 0 min 866 W/m 23,0 km/h (4 Bft)
15.06.2015 15:18 21,0 C 20,0 C 50 % 0 lf 1019,0 hPa 0,0 l/m 2 min 0 min 857 W/m 18,8 km/h (3 Bft)
15.06.2015 15:20 21,0 C 20,0 C 50 % 0 lf 1018,9 hPa 0,0 l/m 2 min 0 min 864 W/m 23,0 km/h (4 Bft)
15.06.2015 15:22 21,0 C 20,0 C 50 % 0 lf 1018,9 hPa 0,0 l/m 2 min 0 min 868 W/m 16,7 km/h (3 Bft)
15.06.2015 15:24 21,0 C 20,6 C 51 % 0 lf 1018,8 hPa 0,0 l/m 2 min 0 min 858 W/m 18,8 km/h (3 Bft)
15.06.2015 15:26 21,1 C 20,6 C 51 % 0 lf 1018,8 hPa 0,0 l/m 2 min 0 min 858 W/m 20,9 km/h (4 Bft)
15.06.2015 15:28 21,1 C 20,6 C 50 % 0 lf 1018,9 hPa 0,0 l/m 2 min 0 min 853 W/m 25,1 km/h (4 Bft)
15.06.2015 15:30 21,1 C 20,6 C 50 % 0 lf 1018,9 hPa 0,0 l/m 2 min 0 min 859 W/m 18,8 km/h (3 Bft)
15.06.2015 15:32 21,1 C 20,6 C 49 % 0 lf 1018,9 hPa 0,0 l/m 2 min 0 min 856 W/m 23,0 km/h (4 Bft)
15.06.2015 15:34 21,1 C 20,6 C 49 % 0 lf 1018,9 hPa 0,0 l/m 2 min 0 min 856 W/m 18,8 km/h (3 Bft)
15.06.2015 15:36 21,1 C 20,6 C 49 % 0 lf 1019,0 hPa 0,0 l/m 2 min 0 min 861 W/m 25,1 km/h (4 Bft)
15.06.2015 15:38 21,1 C 20,6 C 50 % 0 lf 1018,9 hPa 0,0 l/m 2 min 0 min 861 W/m 14,6 km/h (3 Bft)
15.06.2015 15:40 21,1 C 20,6 C 50 % 0 lf 1018,9 hPa 0,0 l/m 2 min 0 min 851 W/m 18,8 km/h (3 Bft)
15.06.2015 15:42 21,2 C 20,6 C 49 % 0 lf 1018,9 hPa 0,0 l/m 2 min 0 min 872 W/m 18,8 km/h (3 Bft)
15.06.2015 15:44 21,2 C 20,6 C 49 % 0 lf 1018,9 hPa 0,0 l/m 2 min 0 min 874 W/m 27,2 km/h (4 Bft)
15.06.2015 15:46 21,2 C 20,6 C 49 % 0 lf 1019,0 hPa 0,0 l/m 2 min 0 min 861 W/m 20,9 km/h (4 Bft)
15.06.2015 15:48 21,2 C 20,0 C 48 % 0 lf 1018,9 hPa 0,0 l/m 0 min 0 min 271 W/m 16,7 km/h (3 Bft)
15.06.2015 15:50 21,1 C 19,4 C 48 % 0 lf 1018,9 hPa 0,0 l/m 2 min 0 min 513 W/m 16,7 km/h (3 Bft)
15.06.2015 15:52 21,0 C 20,0 C 49 % 0 lf 1018,9 hPa 0,0 l/m 2 min 0 min 805 W/m 16,7 km/h (3 Bft)
15.06.2015 15:54 21,0 C 20,0 C 48 % 0 lf 1018,9 hPa 0,0 l/m 2 min 0 min 811 W/m 31,4 km/h (5 Bft)
15.06.2015 15:56 20,9 C 20,6 C 48 % 0 lf 1018,9 hPa 0,0 l/m 2 min 0 min 820 W/m 27,2 km/h (4 Bft)
15.06.2015 15:58 20,9 C 21,7 C 49 % 0 lf 1018,9 hPa 0,0 l/m 2 min 0 min 815 W/m 18,8 km/h (3 Bft)
15.06.2015 16:00 20,9 C 23,3 C 52 % 0 lf 1018,9 hPa 0,0 l/m 2 min 0 min 825 W/m 10,5 km/h (2 Bft)
15.06.2015 16:02 21,1 C 23,9 C 51 % 0 lf 1018,9 hPa 0,0 l/m 2 min 0 min 826 W/m 6,3 km/h (2 Bft)
15.06.2015 16:04 21,2 C 23,3 C 50 % 0 lf 1018,9 hPa 0,0 l/m 2 min 0 min 822 W/m 14,6 km/h (3 Bft)
15.06.2015 16:06 21,3 C 23,3 C 48 % 0 lf 1018,9 hPa 0,0 l/m 2 min 0 min 817 W/m 23,0 km/h (4 Bft)
15.06.2015 16:08 21,4 C 23,3 C 48 % 0 lf 1019,0 hPa 0,0 l/m 2 min 0 min 808 W/m 16,7 km/h (3 Bft)
15.06.2015 16:10 21,5 C 23,3 C 49 % 0 lf 1019,0 hPa 0,0 l/m 2 min 0 min 811 W/m 20,9 km/h (4 Bft)
15.06.2015 16:12 21,6 C 23,9 C 48 % 0 lf 1018,9 hPa 0,0 l/m 2 min 0 min 797 W/m 18,8 km/h (3 Bft)
15.06.2015 16:14 21,6 C 23,3 C 48 % 0 lf 1018,9 hPa 0,0 l/m 2 min 0 min 796 W/m 20,9 km/h (4 Bft)
15.06.2015 16:16 21,6 C 22,8 C 47 % 0 lf 1019,0 hPa 0,0 l/m 2 min 0 min 783 W/m 20,9 km/h (4 Bft)
15.06.2015 16:18 21,6 C 23,3 C 48 % 0 lf 1019,0 hPa 0,0 l/m 2 min 0 min 757 W/m 18,8 km/h (3 Bft)
15.06.2015 16:20 21,6 C 23,3 C 47 % 0 lf 1018,9 hPa 0,0 l/m 2 min 0 min 792 W/m 16,7 km/h (3 Bft)
15.06.2015 16:22 21,6 C 23,9 C 48 % 0 lf 1018,9 hPa 0,0 l/m 2 min 0 min 784 W/m 27,2 km/h (4 Bft)
15.06.2015 16:24 21,6 C 23,9 C 48 % 0 lf 1018,9 hPa 0,0 l/m 2 min 0 min 764 W/m 27,2 km/h (4 Bft)
15.06.2015 16:26 21,6 C 23,9 C 47 % 0 lf 1018,8 hPa 0,0 l/m 2 min 0 min 748 W/m 16,7 km/h (3 Bft)
15.06.2015 16:28 21,6 C 23,3 C 47 % 0 lf 1018,9 hPa 0,0 l/m 2 min 0 min 768 W/m 18,8 km/h (3 Bft)
15.06.2015 16:30 21,6 C 22,8 C 47 % 0 lf 1018,9 hPa 0,0 l/m 2 min 0 min 772 W/m 16,7 km/h (3 Bft)
15.06.2015 16:32 21,6 C 22,2 C 47 % 0 lf 1018,8 hPa 0,0 l/m 2 min 0 min 657 W/m 10,5 km/h (2 Bft)
15.06.2015 16:34 21,5 C 21,7 C 47 % 0 lf 1018,8 hPa 0,0 l/m 2 min 0 min 358 W/m 12,6 km/h (3 Bft)
15.06.2015 16:36 21,4 C 21,7 C 47 % 0 lf 1018,8 hPa 0,0 l/m 2 min 0 min 741 W/m 12,6 km/h (3 Bft)
15.06.2015 16:38 21,4 C 22,2 C 48 % 0 lf 1018,8 hPa 0,0 l/m 2 min 0 min 739 W/m 25,1 km/h (4 Bft)
15.06.2015 16:40 21,5 C 22,2 C 47 % 0 lf 1018,9 hPa 0,0 l/m 2 min 0 min 737 W/m 25,1 km/h (4 Bft)
15.06.2015 16:42 21,4 C 21,7 C 47 % 0 lf 1018,9 hPa 0,0 l/m 2 min 0 min 679 W/m 31,4 km/h (5 Bft)
15.06.2015 16:44 21,4 C 21,1 C 47 % 0 lf 1018,9 hPa 0,0 l/m 2 min 0 min 382 W/m 23,0 km/h (4 Bft)
15.06.2015 16:46 21,4 C 21,1 C 48 % 0 lf 1018,9 hPa 0,0 l/m 2 min 0 min 713 W/m 23,0 km/h (4 Bft)
15.06.2015 16:48 21,3 C 21,1 C 48 % 0 lf 1018,8 hPa 0,0 l/m 2 min 0 min 684 W/m 10,5 km/h (2 Bft)
15.06.2015 16:50 21,4 C 21,1 C 48 % 0 lf 1018,8 hPa 0,0 l/m 2 min 0 min 696 W/m 27,2 km/h (4 Bft)
15.06.2015 16:52 21,4 C 21,1 C 48 % 0 lf 1018,8 hPa 0,0 l/m 2 min 0 min 697 W/m 20,9 km/h (4 Bft)
15.06.2015 16:54 21,3 C 20,6 C 48 % 0 lf 1018,9 hPa 0,0 l/m 2 min 0 min 674 W/m 27,2 km/h (4 Bft)
15.06.2015 16:56 21,3 C 20,6 C 48 % 0 lf 1018,8 hPa 0,0 l/m 2 min 0 min 642 W/m 23,0 km/h (4 Bft)
15.06.2015 16:58 21,3 C 20,6 C 48 % 0 lf 1018,9 hPa 0,0 l/m 2 min 0 min 635 W/m 23,0 km/h (4 Bft)
15.06.2015 17:00 21,3 C 20,6 C 48 % 0 lf 1018,9 hPa 0,0 l/m 2 min 0 min 638 W/m 23,0 km/h (4 Bft)
15.06.2015 17:02 21,3 C 20,0 C 47 % 0 lf 1018,9 hPa 0,0 l/m 2 min 0 min 632 W/m 23,0 km/h (4 Bft)
15.06.2015 17:04 21,2 C 20,0 C 48 % 0 lf 1019,0 hPa 0,0 l/m 2 min 0 min 637 W/m 20,9 km/h (4 Bft)
15.06.2015 17:06 21,2 C 20,0 C 47 % 0 lf 1019,0 hPa 0,0 l/m 2 min 0 min 642 W/m 25,1 km/h (4 Bft)
15.06.2015 17:08 21,2 C 20,0 C 48 % 0 lf 1019,0 hPa 0,0 l/m 2 min 0 min 631 W/m 14,6 km/h (3 Bft)
15.06.2015 17:10 21,2 C 20,0 C 48 % 0 lf 1019,0 hPa 0,0 l/m 2 min 0 min 634 W/m 10,5 km/h (2 Bft)
15.06.2015 17:12 21,2 C 20,0 C 48 % 0 lf 1019,0 hPa 0,0 l/m 2 min 0 min 647 W/m 12,6 km/h (3 Bft)
15.06.2015 17:14 21,2 C 20,0 C 48 % 0 lf 1019,0 hPa 0,0 l/m 2 min 0 min 655 W/m 18,8 km/h (3 Bft)
15.06.2015 17:16 21,3 C 20,0 C 48 % 0 lf 1019,1 hPa 0,0 l/m 2 min 0 min 658 W/m 18,8 km/h (3 Bft)
15.06.2015 17:18 21,2 C 20,0 C 48 % 0 lf 1019,0 hPa 0,0 l/m 2 min 0 min 654 W/m 18,8 km/h (3 Bft)
15.06.2015 17:20 21,2 C 20,0 C 47 % 0 lf 1018,9 hPa 0,0 l/m 2 min 0 min 647 W/m 20,9 km/h (4 Bft)
15.06.2015 17:22 21,2 C 20,0 C 48 % 0 lf 1019,0 hPa 0,0 l/m 2 min 0 min 640 W/m 18,8 km/h (3 Bft)
15.06.2015 17:24 21,2 C 20,0 C 48 % 0 lf 1018,9 hPa 0,0 l/m 2 min 0 min 633 W/m 23,0 km/h (4 Bft)
15.06.2015 17:26 21,2 C 19,4 C 47 % 0 lf 1018,9 hPa 0,0 l/m 2 min 0 min 616 W/m 25,1 km/h (4 Bft)
15.06.2015 17:28 21,1 C 19,4 C 47 % 0 lf 1018,8 hPa 0,0 l/m 2 min 0 min 616 W/m 23,0 km/h (4 Bft)
15.06.2015 17:30 21,0 C 19,4 C 48 % 0 lf 1018,8 hPa 0,0 l/m 2 min 0 min 608 W/m 20,9 km/h (4 Bft)
15.06.2015 17:32 21,0 C 19,4 C 48 % 0 lf 1018,8 hPa 0,0 l/m 2 min 0 min 587 W/m 16,7 km/h (3 Bft)
15.06.2015 17:34 21,0 C 19,4 C 48 % 0 lf 1018,7 hPa 0,0 l/m 2 min 0 min 598 W/m 16,7 km/h (3 Bft)
15.06.2015 17:36 21,0 C 19,4 C 48 % 0 lf 1018,9 hPa 0,0 l/m 2 min 0 min 598 W/m 18,8 km/h (3 Bft)
15.06.2015 17:38 20,9 C 19,4 C 48 % 0 lf 1018,9 hPa 0,0 l/m 2 min 0 min 595 W/m 25,1 km/h (4 Bft)
15.06.2015 17:40 20,9 C 19,4 C 49 % 0 lf 1018,9 hPa 0,0 l/m 2 min 0 min 579 W/m 14,6 km/h (3 Bft)
15.06.2015 17:42 21,0 C 19,4 C 48 % 0 lf 1019,0 hPa 0,0 l/m 2 min 0 min 578 W/m 27,2 km/h (4 Bft)
15.06.2015 17:44 21,0 C 19,4 C 47 % 0 lf 1018,9 hPa 0,0 l/m 2 min 0 min 588 W/m 23,0 km/h (4 Bft)
15.06.2015 17:46 20,9 C 18,9 C 48 % 0 lf 1019,0 hPa 0,0 l/m 2 min 0 min 558 W/m 16,7 km/h (3 Bft)
15.06.2015 17:48 20,9 C 18,9 C 48 % 0 lf 1019,0 hPa 0,0 l/m 2 min 0 min 281 W/m 18,8 km/h (3 Bft)
15.06.2015 17:50 20,9 C 18,9 C 49 % 0 lf 1019,0 hPa 0,0 l/m 2 min 0 min 272 W/m 18,8 km/h (3 Bft)
15.06.2015 17:52 20,8 C 18,9 C 48 % 0 lf 1018,8 hPa 0,0 l/m 2 min 0 min 561 W/m 16,7 km/h (3 Bft)
15.06.2015 17:54 20,7 C 18,9 C 48 % 0 lf 1018,9 hPa 0,0 l/m 2 min 0 min 554 W/m 16,7 km/h (3 Bft)
15.06.2015 17:56 20,7 C 18,9 C 48 % 0 lf 1018,9 hPa 0,0 l/m 2 min 0 min 554 W/m 16,7 km/h (3 Bft)
15.06.2015 17:58 20,6 C 18,9 C 48 % 0 lf 1018,9 hPa 0,0 l/m 2 min 0 min 549 W/m 18,8 km/h (3 Bft)
15.06.2015 18:00 20,6 C 18,9 C 49 % 0 lf 1018,9 hPa 0,0 l/m 2 min 0 min 543 W/m 20,9 km/h (4 Bft)
15.06.2015 18:02 20,6 C 18,9 C 48 % 0 lf 1018,9 hPa 0,0 l/m 2 min 0 min 402 W/m 29,3 km/h (5 Bft)
15.06.2015 18:05 20,4 C 18,3 C 48 % 0 lf 1019,0 hPa 0,0 l/m 2 min 0 min 318 W/m 25,1 km/h (4 Bft)
15.06.2015 18:06 20,3 C 18,3 C 49 % 0 lf 1019,0 hPa 0,0 l/m 1 min 0 min 483 W/m 16,7 km/h (3 Bft)
15.06.2015 18:08 20,3 C 18,3 C 49 % 0 lf 1019,0 hPa 0,0 l/m 2 min 0 min 488 W/m 23,0 km/h (4 Bft)
15.06.2015 18:10 20,2 C 18,3 C 48 % 0 lf 1019,1 hPa 0,0 l/m 2 min 0 min 491 W/m 25,1 km/h (4 Bft)
15.06.2015 18:12 20,2 C 18,3 C 48 % 0 lf 1019,0 hPa 0,0 l/m 2 min 0 min 488 W/m 16,7 km/h (3 Bft)
15.06.2015 18:14 20,1 C 18,3 C 49 % 0 lf 1019,0 hPa 0,0 l/m 2 min 0 min 482 W/m 31,4 km/h (5 Bft)
15.06.2015 18:16 20,1 C 18,3 C 48 % 0 lf 1019,0 hPa 0,0 l/m 2 min 0 min 477 W/m 27,2 km/h (4 Bft)
15.06.2015 18:18 20,0 C 18,3 C 49 % 0 lf 1018,9 hPa 0,0 l/m 2 min 0 min 474 W/m 20,9 km/h (4 Bft)
15.06.2015 18:20 19,9 C 18,3 C 49 % 0 lf 1018,9 hPa 0,0 l/m 2 min 0 min 466 W/m 18,8 km/h (3 Bft)
15.06.2015 18:22 19,9 C 18,3 C 49 % 0 lf 1019,0 hPa 0,0 l/m 2 min 0 min 454 W/m 25,1 km/h (4 Bft)
15.06.2015 18:24 19,9 C 18,3 C 49 % 0 lf 1019,1 hPa 0,0 l/m 2 min 0 min 450 W/m 23,0 km/h (4 Bft)
15.06.2015 18:26 19,9 C 18,3 C 49 % 0 lf 1019,1 hPa 0,0 l/m 2 min 0 min 444 W/m 25,1 km/h (4 Bft)
15.06.2015 18:28 19,8 C 18,3 C 49 % 0 lf 1019,1 hPa 0,0 l/m 2 min 0 min 442 W/m 18,8 km/h (3 Bft)
15.06.2015 18:30 19,8 C 18,3 C 49 % 0 lf 1019,1 hPa 0,0 l/m 2 min 0 min 452 W/m 31,4 km/h (5 Bft)
15.06.2015 18:32 19,8 C 18,3 C 49 % 0 lf 1019,1 hPa 0,0 l/m 2 min 0 min 443 W/m 27,2 km/h (4 Bft)
15.06.2015 18:34 19,8 C 18,3 C 49 % 0 lf 1019,2 hPa 0,0 l/m 2 min 0 min 433 W/m 23,0 km/h (4 Bft)
15.06.2015 18:36 19,7 C 18,3 C 49 % 0 lf 1019,1 hPa 0,0 l/m 2 min 0 min 418 W/m 25,1 km/h (4 Bft)
15.06.2015 18:38 19,7 C 18,3 C 49 % 0 lf 1019,2 hPa 0,0 l/m 2 min 0 min 406 W/m 27,2 km/h (4 Bft)
15.06.2015 18:40 19,7 C 18,3 C 49 % 0 lf 1019,1 hPa 0,0 l/m 2 min 0 min 394 W/m 27,2 km/h (4 Bft)
15.06.2015 18:42 19,7 C 18,3 C 49 % 0 lf 1019,1 hPa 0,0 l/m 2 min 0 min 384 W/m 18,8 km/h (3 Bft)
15.06.2015 18:44 19,7 C 18,3 C 49 % 0 lf 1019,1 hPa 0,0 l/m 2 min 0 min 381 W/m 29,3 km/h (5 Bft)
15.06.2015 18:46 19,7 C 18,3 C 49 % 0 lf 1019,1 hPa 0,0 l/m 2 min 0 min 373 W/m 23,0 km/h (4 Bft)
15.06.2015 18:48 19,7 C 18,3 C 49 % 0 lf 1019,1 hPa 0,0 l/m 2 min 0 min 363 W/m 20,9 km/h (4 Bft)
15.06.2015 18:50 19,6 C 18,3 C 49 % 0 lf 1019,1 hPa 0,0 l/m 2 min 0 min 361 W/m 16,7 km/h (3 Bft)
15.06.2015 18:52 19,6 C 18,3 C 49 % 0 lf 1019,1 hPa 0,0 l/m 2 min 0 min 349 W/m 16,7 km/h (3 Bft)
15.06.2015 18:54 19,6 C 18,3 C 49 % 0 lf 1019,1 hPa 0,0 l/m 2 min 0 min 347 W/m 18,8 km/h (3 Bft)
15.06.2015 18:56 19,6 C 18,3 C 48 % 0 lf 1019,1 hPa 0,0 l/m 2 min 0 min 334 W/m 23,0 km/h (4 Bft)
15.06.2015 18:58 19,6 C 18,3 C 48 % 0 lf 1019,1 hPa 0,0 l/m 2 min 0 min 331 W/m 23,0 km/h (4 Bft)
15.06.2015 19:00 19,6 C 18,3 C 48 % 0 lf 1019,1 hPa 0,0 l/m 2 min 0 min 334 W/m 20,9 km/h (4 Bft)
15.06.2015 19:02 19,5 C 17,8 C 48 % 0 lf 1019,1 hPa 0,0 l/m 2 min 0 min 330 W/m 18,8 km/h (3 Bft)
15.06.2015 19:04 19,5 C 17,8 C 48 % 0 lf 1019,1 hPa 0,0 l/m 2 min 0 min 321 W/m 18,8 km/h (3 Bft)
15.06.2015 19:06 19,4 C 18,3 C 49 % 0 lf 1019,1 hPa 0,0 l/m 2 min 0 min 304 W/m 16,7 km/h (3 Bft)
15.06.2015 19:08 19,4 C 18,3 C 49 % 0 lf 1019,2 hPa 0,0 l/m 2 min 0 min 290 W/m 16,7 km/h (3 Bft)
15.06.2015 19:10 19,4 C 18,3 C 48 % 0 lf 1019,3 hPa 0,0 l/m 2 min 0 min 289 W/m 27,2 km/h (4 Bft)
15.06.2015 19:12 19,4 C 17,8 C 48 % 0 lf 1019,2 hPa 0,0 l/m 2 min 0 min 274 W/m 27,2 km/h (4 Bft)
15.06.2015 19:14 19,3 C 17,8 C 48 % 0 lf 1019,3 hPa 0,0 l/m 2 min 0 min 268 W/m 23,0 km/h (4 Bft)
15.06.2015 19:16 19,3 C 17,8 C 48 % 0 lf 1019,1 hPa 0,0 l/m 2 min 0 min 274 W/m 23,0 km/h (4 Bft)
15.06.2015 19:18 19,2 C 17,8 C 49 % 0 lf 1019,2 hPa 0,0 l/m 2 min 0 min 274 W/m 20,9 km/h (4 Bft)
15.06.2015 19:20 19,2 C 17,8 C 48 % 0 lf 1019,2 hPa 0,0 l/m 2 min 0 min 268 W/m 23,0 km/h (4 Bft)
15.06.2015 19:22 19,2 C 17,8 C 48 % 0 lf 1019,2 hPa 0,0 l/m 2 min 0 min 272 W/m 25,1 km/h (4 Bft)
15.06.2015 19:24 19,1 C 17,8 C 48 % 0 lf 1019,3 hPa 0,0 l/m 2 min 0 min 270 W/m 25,1 km/h (4 Bft)
15.06.2015 19:26 19,1 C 17,8 C 48 % 0 lf 1019,2 hPa 0,0 l/m 2 min 0 min 266 W/m 20,9 km/h (4 Bft)
15.06.2015 19:28 19,1 C 17,8 C 48 % 0 lf 1019,3 hPa 0,0 l/m 2 min 0 min 253 W/m 27,2 km/h (4 Bft)
15.06.2015 19:30 19,0 C 17,8 C 48 % 0 lf 1019,3 hPa 0,0 l/m 2 min 0 min 240 W/m 25,1 km/h (4 Bft)
15.06.2015 19:32 19,0 C 17,8 C 48 % 0 lf 1019,3 hPa 0,0 l/m 2 min 0 min 235 W/m 20,9 km/h (4 Bft)
15.06.2015 19:34 18,9 C 17,8 C 49 % 0 lf 1019,3 hPa 0,0 l/m 2 min 0 min 223 W/m 23,0 km/h (4 Bft)
15.06.2015 19:36 18,9 C 17,8 C 49 % 0 lf 1019,3 hPa 0,0 l/m 2 min 0 min 226 W/m 27,2 km/h (4 Bft)
15.06.2015 19:38 18,9 C 17,2 C 49 % 0 lf 1019,3 hPa 0,0 l/m 2 min 0 min 224 W/m 27,2 km/h (4 Bft)
15.06.2015 19:40 18,9 C 17,2 C 49 % 0 lf 1019,3 hPa 0,0 l/m 2 min 0 min 215 W/m 25,1 km/h (4 Bft)
15.06.2015 19:42 18,8 C 17,2 C 49 % 0 lf 1019,3 hPa 0,0 l/m 2 min 0 min 212 W/m 14,6 km/h (3 Bft)
15.06.2015 19:44 18,8 C 17,2 C 49 % 0 lf 1019,3 hPa 0,0 l/m 2 min 0 min 209 W/m 23,0 km/h (4 Bft)
15.06.2015 19:46 18,8 C 17,2 C 49 % 0 lf 1019,3 hPa 0,0 l/m 2 min 0 min 207 W/m 16,7 km/h (3 Bft)
15.06.2015 19:48 18,8 C 17,2 C 49 % 0 lf 1019,3 hPa 0,0 l/m 2 min 0 min 208 W/m 18,8 km/h (3 Bft)
15.06.2015 19:50 18,7 C 17,2 C 49 % 0 lf 1019,3 hPa 0,0 l/m 2 min 0 min 210 W/m 27,2 km/h (4 Bft)
15.06.2015 19:52 18,7 C 17,2 C 49 % 0 lf 1019,3 hPa 0,0 l/m 2 min 0 min 205 W/m 25,1 km/h (4 Bft)
15.06.2015 19:54 18,7 C 17,2 C 49 % 0 lf 1019,4 hPa 0,0 l/m 2 min 0 min 183 W/m 23,0 km/h (4 Bft)
15.06.2015 19:56 18,6 C 17,2 C 49 % 0 lf 1019,4 hPa 0,0 l/m 2 min 0 min 182 W/m 20,9 km/h (4 Bft)
15.06.2015 19:58 18,6 C 17,2 C 49 % 0 lf 1019,4 hPa 0,0 l/m 2 min 0 min 182 W/m 23,0 km/h (4 Bft)
15.06.2015 20:00 18,6 C 17,2 C 49 % 0 lf 1019,4 hPa 0,0 l/m 2 min 0 min 182 W/m 18,8 km/h (3 Bft)
15.06.2015 20:02 18,6 C 17,2 C 49 % 0 lf 1019,4 hPa 0,0 l/m 2 min 0 min 185 W/m 23,0 km/h (4 Bft)
15.06.2015 20:04 18,6 C 17,2 C 49 % 0 lf 1019,4 hPa 0,0 l/m 2 min 0 min 176 W/m 18,8 km/h (3 Bft)
15.06.2015 20:06 18,5 C 17,2 C 49 % 0 lf 1019,4 hPa 0,0 l/m 2 min 0 min 155 W/m 20,9 km/h (4 Bft)
15.06.2015 20:08 18,5 C 17,2 C 49 % 0 lf 1019,5 hPa 0,0 l/m 2 min 0 min 147 W/m 18,8 km/h (3 Bft)
15.06.2015 20:10 18,5 C 17,2 C 49 % 0 lf 1019,5 hPa 0,0 l/m 2 min 0 min 133 W/m 23,0 km/h (4 Bft)
15.06.2015 20:12 18,4 C 16,7 C 49 % 0 lf 1019,4 hPa 0,0 l/m 2 min 0 min 134 W/m 25,1 km/h (4 Bft)
15.06.2015 20:14 18,4 C 16,7 C 49 % 0 lf 1019,4 hPa 0,0 l/m 2 min 0 min 143 W/m 31,4 km/h (5 Bft)
15.06.2015 20:16 18,3 C 16,7 C 49 % 0 lf 1019,4 hPa 0,0 l/m 2 min 0 min 140 W/m 25,1 km/h (4 Bft)
15.06.2015 20:18 18,3 C 16,7 C 49 % 0 lf 1019,4 hPa 0,0 l/m 2 min 0 min 142 W/m 27,2 km/h (4 Bft)
15.06.2015 20:20 18,3 C 16,7 C 49 % 0 lf 1019,5 hPa 0,0 l/m 2 min 0 min 141 W/m 16,7 km/h (3 Bft)
15.06.2015 20:22 18,3 C 16,7 C 50 % 0 lf 1019,5 hPa 0,0 l/m 2 min 0 min 141 W/m 23,0 km/h (4 Bft)
15.06.2015 20:24 18,2 C 16,7 C 49 % 0 lf 1019,5 hPa 0,0 l/m 2 min 0 min 136 W/m 18,8 km/h (3 Bft)
15.06.2015 20:26 18,2 C 16,7 C 49 % 0 lf 1019,5 hPa 0,0 l/m 2 min 0 min 129 W/m 18,8 km/h (3 Bft)
15.06.2015 20:28 18,2 C 16,7 C 49 % 0 lf 1019,6 hPa 0,0 l/m 2 min 0 min 121 W/m 18,8 km/h (3 Bft)
15.06.2015 20:30 18,2 C 16,7 C 49 % 0 lf 1019,5 hPa 0,0 l/m 2 min 0 min 114 W/m 18,8 km/h (3 Bft)
15.06.2015 20:32 18,1 C 16,7 C 49 % 0 lf 1019,6 hPa 0,0 l/m 2 min 0 min 114 W/m 23,0 km/h (4 Bft)
15.06.2015 20:34 18,1 C 16,7 C 49 % 0 lf 1019,6 hPa 0,0 l/m 2 min 0 min 109 W/m 23,0 km/h (4 Bft)
15.06.2015 20:36 18,1 C 16,7 C 49 % 0 lf 1019,5 hPa 0,0 l/m 2 min 0 min 100 W/m 16,7 km/h (3 Bft)
15.06.2015 20:38 18,1 C 16,7 C 49 % 0 lf 1019,6 hPa 0,0 l/m 2 min 0 min 95 W/m 18,8 km/h (3 Bft)
15.06.2015 20:40 18,0 C 16,7 C 49 % 0 lf 1019,6 hPa 0,0 l/m 2 min 0 min 91 W/m 20,9 km/h (4 Bft)
15.06.2015 20:42 18,0 C 16,7 C 50 % 0 lf 1019,6 hPa 0,0 l/m 2 min 0 min 85 W/m 12,6 km/h (3 Bft)
15.06.2015 20:44 18,0 C 16,7 C 50 % 0 lf 1019,7 hPa 0,0 l/m 2 min 0 min 81 W/m 18,8 km/h (3 Bft)
15.06.2015 20:46 17,9 C 16,7 C 50 % 0 lf 1019,7 hPa 0,0 l/m 2 min 0 min 76 W/m 20,9 km/h (4 Bft)
15.06.2015 20:48 17,9 C 16,7 C 50 % 0 lf 1019,7 hPa 0,0 l/m 2 min 0 min 71 W/m 18,8 km/h (3 Bft)
15.06.2015 20:50 17,9 C 16,1 C 50 % 0 lf 1019,7 hPa 0,0 l/m 2 min 0 min 64 W/m 16,7 km/h (3 Bft)
15.06.2015 20:52 17,8 C 16,1 C 50 % 0 lf 1019,7 hPa 0,0 l/m 2 min 0 min 60 W/m 12,6 km/h (3 Bft)
15.06.2015 20:54 17,8 C 16,1 C 50 % 0 lf 1019,7 hPa 0,0 l/m 2 min 0 min 60 W/m 18,8 km/h (3 Bft)
15.06.2015 20:56 17,8 C 16,1 C 50 % 0 lf 1019,7 hPa 0,0 l/m 2 min 0 min 56 W/m 16,7 km/h (3 Bft)
15.06.2015 20:58 17,8 C 16,1 C 50 % 0 lf 1019,9 hPa 0,0 l/m 2 min 0 min 52 W/m 16,7 km/h (3 Bft)
15.06.2015 21:00 17,7 C 16,1 C 50 % 0 lf 1019,7 hPa 0,0 l/m 2 min 0 min 50 W/m 18,8 km/h (3 Bft)
15.06.2015 21:02 17,7 C 16,1 C 50 % 0 lf 1019,7 hPa 0,0 l/m 2 min 0 min 49 W/m 23,0 km/h (4 Bft)
15.06.2015 21:04 17,6 C 16,1 C 50 % 0 lf 1019,9 hPa 0,0 l/m 2 min 0 min 45 W/m 16,7 km/h (3 Bft)
15.06.2015 21:06 17,6 C 16,1 C 50 % 0 lf 1019,8 hPa 0,0 l/m 2 min 0 min 43 W/m 16,7 km/h (3 Bft)
15.06.2015 21:08 17,6 C 16,1 C 50 % 0 lf 1019,9 hPa 0,0 l/m 2 min 0 min 40 W/m 20,9 km/h (4 Bft)
15.06.2015 21:10 17,5 C 16,1 C 50 % 0 lf 1019,8 hPa 0,0 l/m 2 min 0 min 37 W/m 16,7 km/h (3 Bft)
15.06.2015 21:12 17,4 C 15,6 C 50 % 0 lf 1019,9 hPa 0,0 l/m 0 min 0 min 34 W/m 20,9 km/h (4 Bft)
15.06.2015 21:14 17,4 C 15,6 C 50 % 0 lf 1019,9 hPa 0,0 l/m 2 min 0 min 33 W/m 14,6 km/h (3 Bft)
15.06.2015 21:16 17,4 C 15,6 C 50 % 0 lf 1019,9 hPa 0,0 l/m 2 min 0 min 31 W/m 23,0 km/h (4 Bft)
15.06.2015 21:18 17,3 C 15,6 C 50 % 0 lf 1019,9 hPa 0,0 l/m 2 min 0 min 29 W/m 20,9 km/h (4 Bft)
15.06.2015 21:20 17,3 C 15,6 C 50 % 0 lf 1019,9 hPa 0,0 l/m 2 min 0 min 27 W/m 14,6 km/h (3 Bft)
15.06.2015 21:22 17,2 C 15,6 C 51 % 0 lf 1019,9 hPa 0,0 l/m 2 min 0 min 26 W/m 12,6 km/h (3 Bft)
15.06.2015 21:24 17,2 C 15,6 C 51 % 0 lf 1020,0 hPa 0,0 l/m 2 min 0 min 25 W/m 12,6 km/h (3 Bft)
15.06.2015 21:26 17,2 C 15,6 C 51 % 0 lf 1020,0 hPa 0,0 l/m 2 min 0 min 23 W/m 14,6 km/h (3 Bft)
15.06.2015 21:28 17,1 C 15,6 C 51 % 0 lf 1020,0 hPa 0,0 l/m 2 min 0 min 21 W/m 14,6 km/h (3 Bft)
15.06.2015 21:30 17,1 C 15,0 C 51 % 0 lf 1020,0 hPa 0,0 l/m 2 min 0 min 20 W/m 16,7 km/h (3 Bft)
15.06.2015 21:32 17,1 C 15,0 C 51 % 0 lf 1020,1 hPa 0,0 l/m 0 min 0 min 18 W/m 16,7 km/h (3 Bft)
15.06.2015 21:34 17,0 C 15,0 C 51 % 0 lf 1020,1 hPa 0,0 l/m 0 min 0 min 18 W/m 14,6 km/h (3 Bft)
15.06.2015 21:36 16,9 C 15,0 C 51 % 0 lf 1020,1 hPa 0,0 l/m 0 min 0 min 16 W/m 16,7 km/h (3 Bft)
15.06.2015 21:38 16,9 C 15,0 C 51 % 0 lf 1020,1 hPa 0,0 l/m 0 min 0 min 15 W/m 12,6 km/h (3 Bft)
15.06.2015 21:40 16,8 C 15,0 C 51 % 0 lf 1020,2 hPa 0,0 l/m 0 min 0 min 14 W/m 14,6 km/h (3 Bft)
15.06.2015 21:42 16,8 C 15,0 C 51 % 0 lf 1020,1 hPa 0,0 l/m 0 min 0 min 12 W/m 18,8 km/h (3 Bft)
15.06.2015 21:44 16,7 C 15,0 C 51 % 0 lf 1020,2 hPa 0,0 l/m 0 min 0 min 11 W/m 14,6 km/h (3 Bft)
15.06.2015 21:46 16,7 C 15,0 C 51 % 0 lf 1020,1 hPa 0,0 l/m 0 min 0 min 11 W/m 14,6 km/h (3 Bft)
15.06.2015 21:48 16,7 C 15,0 C 51 % 0 lf 1020,2 hPa 0,0 l/m 0 min 0 min 9 W/m 10,5 km/h (2 Bft)
15.06.2015 21:50 16,6 C 15,0 C 52 % 0 lf 1020,2 hPa 0,0 l/m 0 min 0 min 8 W/m 12,6 km/h (3 Bft)
15.06.2015 21:52 16,6 C 15,0 C 52 % 0 lf 1020,3 hPa 0,0 l/m 0 min 0 min 7 W/m 12,6 km/h (3 Bft)
15.06.2015 21:54 16,5 C 14,4 C 52 % 0 lf 1020,3 hPa 0,0 l/m 0 min 0 min 6 W/m 10,5 km/h (2 Bft)
15.06.2015 21:56 16,4 C 14,4 C 52 % 0 lf 1020,4 hPa 0,0 l/m 0 min 0 min 5 W/m 8,4 km/h (2 Bft)
15.06.2015 21:58 16,4 C 14,4 C 52 % 0 lf 1020,5 hPa 0,0 l/m 0 min 0 min 3 W/m 10,5 km/h (2 Bft)
15.06.2015 22:00 16,3 C 14,4 C 52 % 0 lf 1020,5 hPa 0,0 l/m 0 min 0 min 0 W/m 8,4 km/h (2 Bft)
15.06.2015 22:02 16,3 C 14,4 C 53 % 0 lf 1020,5 hPa 0,0 l/m 0 min 0 min 0 W/m 8,4 km/h (2 Bft)
15.06.2015 22:04 16,2 C 14,4 C 53 % 0 lf 1020,6 hPa 0,0 l/m 0 min 0 min 0 W/m 10,5 km/h (2 Bft)
15.06.2015 22:06 16,2 C 14,4 C 53 % 0 lf 1020,6 hPa 0,0 l/m 0 min 0 min 0 W/m 8,4 km/h (2 Bft)
15.06.2015 22:08 16,2 C 13,9 C 53 % 0 lf 1020,6 hPa 0,0 l/m 0 min 0 min 0 W/m 8,4 km/h (2 Bft)
15.06.2015 22:10 16,1 C 13,9 C 53 % 0 lf 1020,6 hPa 0,0 l/m 0 min 0 min 0 W/m 8,4 km/h (2 Bft)
15.06.2015 22:12 16,1 C 13,9 C 54 % 0 lf 1020,7 hPa 0,0 l/m 0 min 0 min 0 W/m 8,4 km/h (2 Bft)
15.06.2015 22:14 16,1 C 13,9 C 54 % 0 lf 1020,7 hPa 0,0 l/m 0 min 0 min 0 W/m 10,5 km/h (2 Bft)
15.06.2015 22:16 16,0 C 13,9 C 54 % 0 lf 1020,8 hPa 0,0 l/m 0 min 0 min 0 W/m 10,5 km/h (2 Bft)
15.06.2015 22:18 15,9 C 13,9 C 54 % 0 lf 1020,8 hPa 0,0 l/m 0 min 0 min 0 W/m 8,4 km/h (2 Bft)
15.06.2015 22:20 15,9 C 13,9 C 54 % 0 lf 1020,8 hPa 0,0 l/m 0 min 0 min 0 W/m 8,4 km/h (2 Bft)
15.06.2015 22:22 15,8 C 13,9 C 54 % 0 lf 1020,9 hPa 0,0 l/m 0 min 0 min 0 W/m 8,4 km/h (2 Bft)
15.06.2015 22:24 15,8 C 13,9 C 55 % 0 lf 1020,9 hPa 0,0 l/m 0 min 0 min 0 W/m 10,5 km/h (2 Bft)
15.06.2015 22:26 15,7 C 13,9 C 55 % 0 lf 1020,9 hPa 0,0 l/m 0 min 0 min 0 W/m 8,4 km/h (2 Bft)
15.06.2015 22:28 15,7 C 13,9 C 55 % 0 lf 1020,9 hPa 0,0 l/m 0 min 0 min 0 W/m 8,4 km/h (2 Bft)
15.06.2015 22:30 15,6 C 13,3 C 55 % 0 lf 1020,9 hPa 0,0 l/m 0 min 0 min 0 W/m 8,4 km/h (2 Bft)
15.06.2015 22:32 15,6 C 13,3 C 56 % 0 lf 1021,0 hPa 0,0 l/m 0 min 0 min 0 W/m 12,6 km/h (3 Bft)
15.06.2015 22:34 15,5 C 13,3 C 56 % 0 lf 1021,0 hPa 0,0 l/m 0 min 0 min 0 W/m 12,6 km/h (3 Bft)
15.06.2015 22:36 15,4 C 13,3 C 56 % 0 lf 1021,1 hPa 0,0 l/m 0 min 0 min 0 W/m 16,7 km/h (3 Bft)
15.06.2015 22:38 15,3 C 13,9 C 56 % 0 lf 1021,0 hPa 0,0 l/m 0 min 0 min 0 W/m 12,6 km/h (3 Bft)
15.06.2015 22:40 15,3 C 13,9 C 57 % 0 lf 1021,0 hPa 0,0 l/m 0 min 0 min 0 W/m 16,7 km/h (3 Bft)
15.06.2015 22:42 15,2 C 13,3 C 57 % 0 lf 1021,1 hPa 0,0 l/m 0 min 0 min 0 W/m 14,6 km/h (3 Bft)
15.06.2015 22:44 15,2 C 13,3 C 57 % 0 lf 1021,1 hPa 0,0 l/m 0 min 0 min 0 W/m 16,7 km/h (3 Bft)
15.06.2015 22:46 15,1 C 13,3 C 58 % 0 lf 1021,1 hPa 0,0 l/m 0 min 0 min 0 W/m 16,7 km/h (3 Bft)
15.06.2015 22:48 15,1 C 13,3 C 58 % 0 lf 1021,1 hPa 0,0 l/m 0 min 0 min 0 W/m 12,6 km/h (3 Bft)
15.06.2015 22:50 15,0 C 13,3 C 58 % 0 lf 1021,1 hPa 0,0 l/m 0 min 0 min 0 W/m 12,6 km/h (3 Bft)
15.06.2015 22:52 14,9 C 13,3 C 59 % 0 lf 1021,1 hPa 0,0 l/m 0 min 0 min 0 W/m 10,5 km/h (2 Bft)
15.06.2015 22:54 14,9 C 13,3 C 59 % 0 lf 1021,2 hPa 0,0 l/m 0 min 0 min 0 W/m 14,6 km/h (3 Bft)
15.06.2015 22:56 14,8 C 13,3 C 59 % 0 lf 1021,2 hPa 0,0 l/m 0 min 0 min 0 W/m 18,8 km/h (3 Bft)
15.06.2015 22:58 14,8 C 13,3 C 60 % 0 lf 1021,1 hPa 0,0 l/m 0 min 0 min 0 W/m 16,7 km/h (3 Bft)
15.06.2015 23:00 14,7 C 13,3 C 60 % 0 lf 1021,2 hPa 0,0 l/m 0 min 0 min 0 W/m 10,5 km/h (2 Bft)
15.06.2015 23:02 14,7 C 12,8 C 60 % 0 lf 1021,2 hPa 0,0 l/m 0 min 0 min 0 W/m 12,6 km/h (3 Bft)
15.06.2015 23:04 14,7 C 12,8 C 60 % 0 lf 1021,3 hPa 0,0 l/m 0 min 0 min 0 W/m 10,5 km/h (2 Bft)
15.06.2015 23:06 14,6 C 12,8 C 61 % 0 lf 1021,3 hPa 0,0 l/m 0 min 0 min 0 W/m 10,5 km/h (2 Bft)
15.06.2015 23:08 14,6 C 12,8 C 61 % 0 lf 1021,3 hPa 0,0 l/m 0 min 0 min 0 W/m 10,5 km/h (2 Bft)
15.06.2015 23:10 14,5 C 12,8 C 61 % 0 lf 1021,3 hPa 0,0 l/m 0 min 0 min 0 W/m 18,8 km/h (3 Bft)
15.06.2015 23:12 14,4 C 12,8 C 62 % 0 lf 1021,3 hPa 0,0 l/m 0 min 0 min 0 W/m 18,8 km/h (3 Bft)
15.06.2015 23:14 14,3 C 12,8 C 62 % 0 lf 1021,3 hPa 0,0 l/m 0 min 0 min 0 W/m 14,6 km/h (3 Bft)
15.06.2015 23:16 14,3 C 12,8 C 62 % 0 lf 1021,3 hPa 0,0 l/m 0 min 0 min 0 W/m 14,6 km/h (3 Bft)
15.06.2015 23:18 14,2 C 12,8 C 63 % 0 lf 1021,4 hPa 0,0 l/m 0 min 0 min 0 W/m 14,6 km/h (3 Bft)
15.06.2015 23:20 14,2 C 12,8 C 63 % 0 lf 1021,4 hPa 0,0 l/m 0 min 0 min 0 W/m 12,6 km/h (3 Bft)
15.06.2015 23:22 14,2 C 12,8 C 63 % 0 lf 1021,4 hPa 0,0 l/m 0 min 0 min 0 W/m 14,6 km/h (3 Bft)
15.06.2015 23:24 14,2 C 12,8 C 64 % 0 lf 1021,4 hPa 0,0 l/m 0 min 0 min 0 W/m 16,7 km/h (3 Bft)
15.06.2015 23:26 14,2 C 12,8 C 64 % 0 lf 1021,5 hPa 0,0 l/m 0 min 0 min 0 W/m 18,8 km/h (3 Bft)
15.06.2015 23:28 14,1 C 12,8 C 64 % 0 lf 1021,6 hPa 0,0 l/m 0 min 0 min 0 W/m 20,9 km/h (4 Bft)
15.06.2015 23:30 14,1 C 12,8 C 64 % 0 lf 1021,6 hPa 0,0 l/m 0 min 0 min 0 W/m 18,8 km/h (3 Bft)
15.06.2015 23:32 14,0 C 12,8 C 64 % 0 lf 1021,6 hPa 0,0 l/m 0 min 0 min 0 W/m 16,7 km/h (3 Bft)
15.06.2015 23:34 13,9 C 12,8 C 64 % 0 lf 1021,6 hPa 0,0 l/m 0 min 0 min 0 W/m 16,7 km/h (3 Bft)
15.06.2015 23:36 13,9 C 12,8 C 65 % 0 lf 1021,6 hPa 0,0 l/m 0 min 0 min 0 W/m 18,8 km/h (3 Bft)
15.06.2015 23:38 13,9 C 12,8 C 65 % 0 lf 1021,7 hPa 0,0 l/m 0 min 0 min 0 W/m 18,8 km/h (3 Bft)
15.06.2015 23:40 13,8 C 12,2 C 65 % 0 lf 1021,7 hPa 0,0 l/m 0 min 0 min 0 W/m 23,0 km/h (4 Bft)
15.06.2015 23:42 13,8 C 12,2 C 65 % 0 lf 1021,7 hPa 0,0 l/m 0 min 0 min 0 W/m 18,8 km/h (3 Bft)
15.06.2015 23:44 13,8 C 12,2 C 65 % 0 lf 1021,8 hPa 0,0 l/m 0 min 0 min 0 W/m 18,8 km/h (3 Bft)
15.06.2015 23:46 13,7 C 12,2 C 65 % 0 lf 1021,8 hPa 0,0 l/m 0 min 0 min 0 W/m 23,0 km/h (4 Bft)
15.06.2015 23:48 13,7 C 12,2 C 65 % 0 lf 1021,7 hPa 0,0 l/m 0 min 0 min 0 W/m 23,0 km/h (4 Bft)
15.06.2015 23:50 13,7 C 12,2 C 65 % 0 lf 1021,8 hPa 0,0 l/m 0 min 0 min 0 W/m 20,9 km/h (4 Bft)
15.06.2015 23:52 13,6 C 12,2 C 65 % 0 lf 1021,8 hPa 0,0 l/m 0 min 0 min 0 W/m 18,8 km/h (3 Bft)
15.06.2015 23:54 13,6 C 12,2 C 66 % 0 lf 1021,8 hPa 0,0 l/m 0 min 0 min 0 W/m 12,6 km/h (3 Bft)
15.06.2015 23:56 13,6 C 12,2 C 66 % 0 lf 1021,8 hPa 0,0 l/m 0 min 0 min 0 W/m 16,7 km/h (3 Bft)
15.06.2015 23:58 13,6 C 12,2 C 66 % 0 lf 1021,8 hPa 0,0 l/m 0 min 0 min 0 W/m 14,6 km/h (3 Bft)
_ Min-Zeit 08:00 07:20 16:16 00:00 00:10 - - - - 16:02
Minimum _ 12,2 C 11,1 C 47 % 0 lf 1012,5 hPa - - - - 6,3 km/h (2 Bft)
_ Max-Zeit 16:12 16:02 07:40 07:20 23:44 00:00 10:36 00:00 13:02 10:52
Maximum _ 21,6 C 23,9 C 91 % 7 lf 1021,8 hPa 0,0 l/m 2 min 0 min 1155 W/m 33,5 km/h
N-NO (5 Bft)
Durchschnitt _ 16,7 C 16,0 C 67 % 0 lf 1017,6 hPa #0,0 l/m #10:10 h #0 min. 407 W/m 19,2 km/h (3 Bft)
© 2015 W. Hausmann